Observation data for Vigo Park on 02/15/2018      Previous  Date  Next       Current Mesonet Observations  Soil Data  Daily Summary Page  Observations in Plain Language
KVP1 150600Z 22010KT 14/00 A2999 RMK A01 T01400000  RH  038%=      5-min Rain = 0
KVP1 150601Z 22010KT 14/00 A2999 RMK A01 T013900-0  RH  038%=      5-min Rain = 0
KVP1 150602Z 22011KT 14/00 A2999 RMK A01 T013900-0  RH  038%=      5-min Rain = 0
KVP1 150603Z 22010KT 14/00 A2999 RMK A01 T014000-0  RH  038%=      5-min Rain = 0
KVP1 150604Z 21011KT 14/00 A2999 RMK A01 T01410000  RH  038%=      5-min Rain = 0
KVP1 150605Z 21011KT 14/00 A2999 RMK A01 T01410000  RH  038%=      5-min Rain = 0
KVP1 150606Z 21011KT 14/00 A2999 RMK A01 T014200-0  RH  038%=      5-min Rain = 0
KVP1 150607Z 21011KT 14/00 A2999 RMK A01 T01430000  RH  038%=      5-min Rain = 0
KVP1 150608Z 20011KT 14/00 A2999 RMK A01 T01430000  RH  037%=      5-min Rain = 0
KVP1 150609Z 20010KT 14/00 A2999 RMK A01 T01430000  RH  038%=      5-min Rain = 0
KVP1 150610Z 20010KT 14/00 A2999 RMK A01 T01420000  RH  038%=      5-min Rain = 0
KVP1 150611Z 20010KT 14/00 A2999 RMK A01 T01420000  RH  038%=      5-min Rain = 0
KVP1 150612Z 20010KT 14/00 A2999 RMK A01 T014000-0  RH  038%=      5-min Rain = 0
KVP1 150613Z 21010KT 14/00 A2999 RMK A01 T014000-0  RH  038%=      5-min Rain = 0
KVP1 150614Z 21010KT 14/00 A2999 RMK A01 T013900-0  RH  038%=      5-min Rain = 0
KVP1 150615Z 21010KT 14/00 A2999 RMK A01 T013900-0  RH  038%=      5-min Rain = 0
KVP1 150616Z 21009KT 14/00 A2999 RMK A01 T013800-0  RH  039%=      5-min Rain = 0
KVP1 150617Z 22010KT 14/00 A2999 RMK A01 T01380000  RH  039%=      5-min Rain = 0
KVP1 150618Z 22009KT 14/00 A2999 RMK A01 T01380000  RH  039%=      5-min Rain = 0
KVP1 150619Z 22009KT 14/00 A2999 RMK A01 T01390001  RH  039%=      5-min Rain = 0
KVP1 150620Z 22009KT 14/00 A2999 RMK A01 T01400001  RH  039%=      5-min Rain = 0
KVP1 150621Z 22009KT 14/00 A2999 RMK A01 T01410001  RH  038%=      5-min Rain = 0
KVP1 150622Z 22009KT 14/00 A2999 RMK A01 T01410001  RH  038%=      5-min Rain = 0
KVP1 150623Z 22010KT 14/00 A2999 RMK A01 T01420002  RH  038%=      5-min Rain = 0
KVP1 150624Z 22010KT 14/00 A2999 RMK A01 T01420002  RH  038%=      5-min Rain = 0
KVP1 150625Z 21010KT 14/00 A2999 RMK A01 T01430002  RH  038%=      5-min Rain = 0
KVP1 150626Z 21009KT 14/00 A2999 RMK A01 T01430001  RH  038%=      5-min Rain = 0
KVP1 150627Z 21009KT 14/00 A2999 RMK A01 T01430001  RH  038%=      5-min Rain = 0
KVP1 150628Z 21009KT 14/00 A2999 RMK A01 T01420001  RH  038%=      5-min Rain = 0
KVP1 150629Z 20009KT 14/00 A2999 RMK A01 T01410000  RH  038%=      5-min Rain = 0
KVP1 150630Z 20009KT 14/00 A2999 RMK A01 T014000-0  RH  038%=      5-min Rain = 0
KVP1 150631Z 21009KT 14/00 A2999 RMK A01 T013900-0  RH  038%=      5-min Rain = 0
KVP1 150632Z 20009KT 14/00 A2999 RMK A01 T013900-0  RH  038%=      5-min Rain = 0
KVP1 150633Z 21009KT 14/00 A2999 RMK A01 T013900-0  RH  038%=      5-min Rain = 0
KVP1 150634Z 21009KT 14/00 A2999 RMK A01 T01400000  RH  038%=      5-min Rain = 0
KVP1 150635Z 21009KT 14/00 A2999 RMK A01 T01400000  RH  038%=      5-min Rain = 0
KVP1 150636Z 21009KT 14/00 A2999 RMK A01 T01390000  RH  038%=      5-min Rain = 0
KVP1 150637Z 21009KT 14/00 A2999 RMK A01 T01390000  RH  038%=      5-min Rain = 0
KVP1 150638Z 21009KT 14/00 A2999 RMK A01 T01400000  RH  038%=      5-min Rain = 0
KVP1 150639Z 21009KT 14/00 A2999 RMK A01 T013900-0  RH  038%=      5-min Rain = 0
KVP1 150640Z 21009KT 14/00 A2999 RMK A01 T013900-0  RH  038%=      5-min Rain = 0
KVP1 150641Z 21008KT 14/00 A2999 RMK A01 T013800-0  RH  039%=      5-min Rain = 0
KVP1 150642Z 21009KT 14/00 A2999 RMK A01 T013800-0  RH  039%=      5-min Rain = 0
KVP1 150643Z 21009KT 14/M00 A2999 RMK A01 T01371001  RH  039%=      5-min Rain = 0
KVP1 150644Z 21008KT 14/M00 A2999 RMK A01 T01361001  RH  039%=      5-min Rain = 0
KVP1 150645Z 21009KT 14/M00 A2999 RMK A01 T01351001  RH  039%=      5-min Rain = 0
KVP1 150646Z 21009KT 14/M00 A2999 RMK A01 T01351001  RH  039%=      5-min Rain = 0
KVP1 150647Z 21009KT 14/00 A2999 RMK A01 T013500-0  RH  039%=      5-min Rain = 0
KVP1 150648Z 21010KT 14/00 A2999 RMK A01 T013500-0  RH  039%=      5-min Rain = 0
KVP1 150649Z 21009KT 14/00 A2999 RMK A01 T013500-0  RH  039%=      5-min Rain = 0
KVP1 150650Z 21009KT 14/00 A2999 RMK A01 T013500-0  RH  039%=      5-min Rain = 0
KVP1 150651Z 21009KT 14/M00 A2999 RMK A01 T01351001  RH  039%=      5-min Rain = 0
KVP1 150652Z 20009KT 14/00 A2999 RMK A01 T013500-0  RH  040%=      5-min Rain = 0
KVP1 150653Z 20009KT 13/M00 A2999 RMK A01 T01341001  RH  040%=      5-min Rain = 0
KVP1 150654Z 20009KT 13/M00 A2999 RMK A01 T01331001  RH  040%=      5-min Rain = 0
KVP1 150655Z 21009KT 13/M00 A2999 RMK A01 T01321001  RH  040%=      5-min Rain = 0
KVP1 150656Z 21009KT 13/M00 A2999 RMK A01 T01321001  RH  040%=      5-min Rain = 0
KVP1 150657Z 21009KT 13/00 A2999 RMK A01 T013200-0  RH  040%=      5-min Rain = 0
KVP1 150658Z 21009KT 13/M00 A2999 RMK A01 T01321001  RH  040%=      5-min Rain = 0
KVP1 150659Z 21009KT 13/00 A2998 RMK A01 T013200-0  RH  040%=      5-min Rain = 0
KVP1 150700Z 22010KT 13/00 A2998 RMK A01 T01320000  RH  040%=      5-min Rain = 0
KVP1 150701Z 22010KT 13/00 A2998 RMK A01 T01330001  RH  040%=      5-min Rain = 0
KVP1 150702Z 22010KT 13/00 A2998 RMK A01 T01340001  RH  040%=      5-min Rain = 0
KVP1 150703Z 22010KT 13/00 A2998 RMK A01 T01340001  RH  040%=      5-min Rain = 0
KVP1 150704Z 22010KT 14/00 A2998 RMK A01 T01350001  RH  040%=      5-min Rain = 0
KVP1 150705Z 23010KT 14/00 A2998 RMK A01 T01360002  RH  040%=      5-min Rain = 0
KVP1 150706Z 23010KT 14/00 A2998 RMK A01 T01360002  RH  040%=      5-min Rain = 0
KVP1 150707Z 22010KT 14/00 A2998 RMK A01 T01370003  RH  040%=      5-min Rain = 0
KVP1 150708Z 23010KT 14/00 A2998 RMK A01 T01370003  RH  040%=      5-min Rain = 0
KVP1 150709Z 22010KT 14/00 A2998 RMK A01 T01370003  RH  040%=      5-min Rain = 0
KVP1 150710Z 22010KT 14/00 A2998 RMK A01 T01370003  RH  040%=      5-min Rain = 0
KVP1 150711Z 22010KT 14/00 A2998 RMK A01 T01370003  RH  040%=      5-min Rain = 0
KVP1 150712Z 22010KT 14/00 A2998 RMK A01 T01370003  RH  040%=      5-min Rain = 0
KVP1 150713Z 22010KT 14/00 A2998 RMK A01 T01370003  RH  040%=      5-min Rain = 0
KVP1 150714Z 22011KT 14/00 A2998 RMK A01 T01370004  RH  040%=      5-min Rain = 0
KVP1 150715Z 22010KT 14/00 A2998 RMK A01 T01370004  RH  040%=      5-min Rain = 0
KVP1 150716Z 22011KT 14/00 A2998 RMK A01 T01370004  RH  040%=      5-min Rain = 0
KVP1 150717Z 22011KT 14/00 A2998 RMK A01 T01370004  RH  040%=      5-min Rain = 0
KVP1 150718Z 22010KT 14/01 A2998 RMK A01 T01370005  RH  040%=      5-min Rain = 0
KVP1 150719Z 22011KT 14/01 A2998 RMK A01 T01370005  RH  040%=      5-min Rain = 0
KVP1 150720Z 23010KT 14/01 A2998 RMK A01 T01370005  RH  040%=      5-min Rain = 0
KVP1 150721Z 23010KT 14/00 A2998 RMK A01 T01370004  RH  040%=      5-min Rain = 0
KVP1 150722Z 24010KT 14/00 A2998 RMK A01 T01370004  RH  040%=      5-min Rain = 0
KVP1 150723Z 23010KT 14/01 A2998 RMK A01 T01370005  RH  040%=      5-min Rain = 0
KVP1 150724Z 24010KT 14/01 A2998 RMK A01 T01370005  RH  040%=      5-min Rain = 0
KVP1 150725Z 24010KT 14/01 A2998 RMK A01 T01360005  RH  040%=      5-min Rain = 0
KVP1 150726Z 24009KT 14/01 A2998 RMK A01 T01360005  RH  041%=      5-min Rain = 0
KVP1 150727Z 23009KT 14/01 A2998 RMK A01 T01360005  RH  041%=      5-min Rain = 0
KVP1 150728Z 24009KT 14/01 A2998 RMK A01 T01360006  RH  041%=      5-min Rain = 0
KVP1 150729Z 23010KT 14/01 A2998 RMK A01 T01360006  RH  041%=      5-min Rain = 0
KVP1 150730Z 24010KT 14/01 A2998 RMK A01 T01360006  RH  041%=      5-min Rain = 0
KVP1 150731Z 24010KT 14/01 A2999 RMK A01 T01360006  RH  041%=      5-min Rain = 0
KVP1 150732Z 24011KT 14/01 A2999 RMK A01 T01360007  RH  041%=      5-min Rain = 0
KVP1 150733Z 24010KT 14/01 A2999 RMK A01 T01370007  RH  041%=      5-min Rain = 0
KVP1 150734Z 24010KT 14/01 A2998 RMK A01 T01370008  RH  041%=      5-min Rain = 0
KVP1 150735Z 24011KT 14/01 A2998 RMK A01 T01370008  RH  041%=      5-min Rain = 0
KVP1 150736Z 24010KT 14/01 A2998 RMK A01 T01370008  RH  041%=      5-min Rain = 0
KVP1 150737Z 24011KT 14/01 A2998 RMK A01 T01370008  RH  041%=      5-min Rain = 0
KVP1 150738Z 24011KT 14/01 A2998 RMK A01 T01370009  RH  042%=      5-min Rain = 0
KVP1 150739Z 24011KT 14/01 A2998 RMK A01 T01370009  RH  042%=      5-min Rain = 0
KVP1 150740Z 24011KT 14/01 A2998 RMK A01 T01370009  RH  042%=      5-min Rain = 0
KVP1 150741Z 24011KT 14/01 A2998 RMK A01 T01370010  RH  042%=      5-min Rain = 0
KVP1 150742Z 24011KT 14/01 A2999 RMK A01 T01380010  RH  042%=      5-min Rain = 0
KVP1 150743Z 24011KT 14/01 A2999 RMK A01 T01370010  RH  042%=      5-min Rain = 0
KVP1 150744Z 24011KT 14/01 A2999 RMK A01 T01360010  RH  042%=      5-min Rain = 0
KVP1 150745Z 24010KT 14/01 A2998 RMK A01 T01360010  RH  042%=      5-min Rain = 0
KVP1 150746Z 24011KT 14/01 A2998 RMK A01 T01360010  RH  042%=      5-min Rain = 0
KVP1 150747Z 24011KT 14/01 A2999 RMK A01 T01350010  RH  043%=      5-min Rain = 0
KVP1 150748Z 24011KT 14/01 A2999 RMK A01 T01350011  RH  043%=      5-min Rain = 0
KVP1 150749Z 24010KT 13/01 A2998 RMK A01 T01340010  RH  043%=      5-min Rain = 0
KVP1 150750Z 24010KT 13/01 A2998 RMK A01 T01330010  RH  043%=      5-min Rain = 0
KVP1 150751Z 24010KT 13/01 A2998 RMK A01 T01330011  RH  043%=      5-min Rain = 0
KVP1 150752Z 23010KT 13/01 A2998 RMK A01 T01330011  RH  043%=      5-min Rain = 0
KVP1 150753Z 24010KT 13/01 A2998 RMK A01 T01330011  RH  043%=      5-min Rain = 0
KVP1 150754Z 23010KT 13/01 A2998 RMK A01 T01320010  RH  044%=      5-min Rain = 0
KVP1 150755Z 23010KT 13/01 A2998 RMK A01 T01310010  RH  044%=      5-min Rain = 0
KVP1 150756Z 23010KT 13/01 A2998 RMK A01 T01300011  RH  044%=      5-min Rain = 0
KVP1 150757Z 23009KT 13/01 A2998 RMK A01 T01290011  RH  044%=      5-min Rain = 0
KVP1 150758Z 22009KT 13/01 A2998 RMK A01 T01290011  RH  044%=      5-min Rain = 0
KVP1 150759Z 22010KT 13/01 A2998 RMK A01 T01290011  RH  045%=      5-min Rain = 0
KVP1 150800Z 22010KT 13/01 A2999 RMK A01 T01290011  RH  045%=      5-min Rain = 0
KVP1 150801Z 22009KT 13/01 A2999 RMK A01 T01280011  RH  045%=      5-min Rain = 0
KVP1 150802Z 22009KT 13/01 A2999 RMK A01 T01260010  RH  045%=      5-min Rain = 0
KVP1 150803Z 22010KT 13/01 A2999 RMK A01 T01250010  RH  045%=      5-min Rain = 0
KVP1 150804Z 22010KT 13/01 A2999 RMK A01 T01250011  RH  046%=      5-min Rain = 0
KVP1 150805Z 22010KT 13/01 A2999 RMK A01 T01250011  RH  046%=      5-min Rain = 0
KVP1 150806Z 23010KT 13/01 A2999 RMK A01 T01250011  RH  046%=      5-min Rain = 0
KVP1 150807Z 22010KT 13/01 A2999 RMK A01 T01250011  RH  046%=      5-min Rain = 0
KVP1 150808Z 22009KT 12/01 A2999 RMK A01 T01240011  RH  046%=      5-min Rain = 0
KVP1 150809Z 22009KT 12/01 A2999 RMK A01 T01240011  RH  046%=      5-min Rain = 0
KVP1 150810Z 22009KT 12/01 A2999 RMK A01 T01230010  RH  046%=      5-min Rain = 0
KVP1 150811Z 22009KT 12/01 A2999 RMK A01 T01210010  RH  047%=      5-min Rain = 0
KVP1 150812Z 21009KT 12/01 A2999 RMK A01 T01210010  RH  047%=      5-min Rain = 0
KVP1 150813Z 21009KT 12/01 A2999 RMK A01 T01200010  RH  047%=      5-min Rain = 0
KVP1 150814Z 21009KT 12/01 A2999 RMK A01 T01180009  RH  047%=      5-min Rain = 0
KVP1 150815Z 20009KT 12/01 A2999 RMK A01 T01160009  RH  048%=      5-min Rain = 0
KVP1 150816Z 21009KT 12/01 A2999 RMK A01 T01150008  RH  048%=      5-min Rain = 0
KVP1 150817Z 21009KT 11/01 A2999 RMK A01 T01140009  RH  048%=      5-min Rain = 0
KVP1 150818Z 22009KT 11/01 A2999 RMK A01 T01130008  RH  048%=      5-min Rain = 0
KVP1 150819Z 22010KT 11/01 A2999 RMK A01 T01130009  RH  049%=      5-min Rain = 0
KVP1 150820Z 22010KT 11/01 A2999 RMK A01 T01130009  RH  049%=      5-min Rain = 0
KVP1 150821Z 22010KT 11/01 A2999 RMK A01 T01130008  RH  049%=      5-min Rain = 0
KVP1 150822Z 23010KT 11/01 A2999 RMK A01 T01130009  RH  049%=      5-min Rain = 0
KVP1 150823Z 23010KT 11/01 A2999 RMK A01 T01140009  RH  048%=      5-min Rain = 0
KVP1 150824Z 22010KT 11/01 A2999 RMK A01 T01140009  RH  048%=      5-min Rain = 0
KVP1 150825Z 22010KT 11/01 A2999 RMK A01 T01140009  RH  048%=      5-min Rain = 0
KVP1 150826Z 22010KT 11/01 A2999 RMK A01 T01140009  RH  048%=      5-min Rain = 0
KVP1 150827Z 22010KT 11/01 A2999 RMK A01 T01140009  RH  048%=      5-min Rain = 0
KVP1 150828Z 22010KT 11/01 A2999 RMK A01 T01140009  RH  049%=      5-min Rain = 0
KVP1 150829Z 22010KT 11/01 A2999 RMK A01 T01140010  RH  049%=      5-min Rain = 0
KVP1 150830Z 21010KT 11/01 A2998 RMK A01 T01140010  RH  049%=      5-min Rain = 0
KVP1 150831Z 21009KT 11/01 A2998 RMK A01 T01140010  RH  049%=      5-min Rain = 0
KVP1 150832Z 21010KT 11/01 A2998 RMK A01 T01140010  RH  049%=      5-min Rain = 0
KVP1 150833Z 21010KT 11/01 A2998 RMK A01 T01130010  RH  049%=      5-min Rain = 0
KVP1 150834Z 21010KT 11/01 A2998 RMK A01 T01130010  RH  049%=      5-min Rain = 0
KVP1 150835Z 21010KT 11/01 A2998 RMK A01 T01130010  RH  049%=      5-min Rain = 0
KVP1 150836Z 21010KT 11/01 A2998 RMK A01 T01130010  RH  049%=      5-min Rain = 0
KVP1 150837Z 22010KT 11/01 A2998 RMK A01 T01120010  RH  049%=      5-min Rain = 0
KVP1 150838Z 22010KT 11/01 A2998 RMK A01 T01120011  RH  050%=      5-min Rain = 0
KVP1 150839Z 21010KT 11/01 A2998 RMK A01 T01120010  RH  050%=      5-min Rain = 0
KVP1 150840Z 21011KT 11/01 A2998 RMK A01 T01120010  RH  050%=      5-min Rain = 0
KVP1 150841Z 21010KT 11/01 A2998 RMK A01 T01110010  RH  050%=      5-min Rain = 0
KVP1 150842Z 21010KT 11/01 A2998 RMK A01 T01110010  RH  050%=      5-min Rain = 0
KVP1 150843Z 21010KT 11/01 A2998 RMK A01 T01110010  RH  050%=      5-min Rain = 0
KVP1 150844Z 21010KT 11/01 A2998 RMK A01 T01110010  RH  050%=      5-min Rain = 0
KVP1 150845Z 21009KT 11/01 A2998 RMK A01 T01100010  RH  050%=      5-min Rain = 0
KVP1 150846Z 21010KT 11/01 A2998 RMK A01 T01100010  RH  050%=      5-min Rain = 0
KVP1 150847Z 20010KT 11/01 A2998 RMK A01 T01100009  RH  050%=      5-min Rain = 0
KVP1 150848Z 21010KT 11/01 A2998 RMK A01 T01090009  RH  050%=      5-min Rain = 0
KVP1 150849Z 20010KT 11/01 A2998 RMK A01 T01080008  RH  050%=      5-min Rain = 0
KVP1 150850Z 20010KT 11/01 A2998 RMK A01 T01070008  RH  050%=      5-min Rain = 0
KVP1 150851Z 20010KT 11/01 A2998 RMK A01 T01070007  RH  050%=      5-min Rain = 0
KVP1 150852Z 21010KT 11/01 A2998 RMK A01 T01070007  RH  050%=      5-min Rain = 0
KVP1 150853Z 21011KT 11/01 A2998 RMK A01 T01060006  RH  050%=      5-min Rain = 0
KVP1 150854Z 21011KT 11/01 A2998 RMK A01 T01070006  RH  049%=      5-min Rain = 0
KVP1 150855Z 21011KT 11/01 A2998 RMK A01 T01080005  RH  049%=      5-min Rain = 0
KVP1 150856Z 21012KT 11/01 A2998 RMK A01 T01090005  RH  049%=      5-min Rain = 0
KVP1 150857Z 21011KT 11/01 A2998 RMK A01 T01090005  RH  048%=      5-min Rain = 0
KVP1 150858Z 21011KT 11/01 A2998 RMK A01 T01090005  RH  048%=      5-min Rain = 0
KVP1 150859Z 21011KT 11/00 A2998 RMK A01 T01090004  RH  048%=      5-min Rain = 0
KVP1 150900Z 21011KT 11/00 A2998 RMK A01 T01100004  RH  048%=      5-min Rain = 0
KVP1 150901Z 21011KT 11/00 A2998 RMK A01 T01110004  RH  048%=      5-min Rain = 0
KVP1 150902Z 21012KT 11/00 A2998 RMK A01 T01110004  RH  048%=      5-min Rain = 0
KVP1 150903Z 21011KT 11/01 A2998 RMK A01 T01120005  RH  048%=      5-min Rain = 0
KVP1 150904Z 21011KT 11/01 A2998 RMK A01 T01130005  RH  047%=      5-min Rain = 0
KVP1 150905Z 21011KT 11/01 A2998 RMK A01 T01130005  RH  047%=      5-min Rain = 0
KVP1 150906Z 21013KT 11/01 A2998 RMK A01 T01140006  RH  047%=      5-min Rain = 0
KVP1 150907Z 21012KT 11/01 A2998 RMK A01 T01140006  RH  047%=      5-min Rain = 0
KVP1 150908Z 21013KT 12/01 A2998 RMK A01 T01150006  RH  047%=      5-min Rain = 0
KVP1 150909Z 21013KT 12/01 A2998 RMK A01 T01160007  RH  047%=      5-min Rain = 0
KVP1 150910Z 21012KT 12/01 A2998 RMK A01 T01160006  RH  047%=      5-min Rain = 0
KVP1 150911Z 21012KT 12/01 A2998 RMK A01 T01170006  RH  046%=      5-min Rain = 0
KVP1 150912Z 21011KT 12/01 A2998 RMK A01 T01180006  RH  046%=      5-min Rain = 0
KVP1 150913Z 21013KT 12/01 A2998 RMK A01 T01180006  RH  046%=      5-min Rain = 0
KVP1 150914Z 22012KT 12/01 A2998 RMK A01 T01180006  RH  046%=      5-min Rain = 0
KVP1 150915Z 22012KT 12/01 A2998 RMK A01 T01190007  RH  046%=      5-min Rain = 0
KVP1 150916Z 22012KT 12/01 A2998 RMK A01 T01190007  RH  046%=      5-min Rain = 0
KVP1 150917Z 22013KT 12/01 A2998 RMK A01 T01200008  RH  046%=      5-min Rain = 0
KVP1 150918Z 22012KT 12/01 A2998 RMK A01 T01210009  RH  046%=      5-min Rain = 0
KVP1 150919Z 22012KT 12/01 A2997 RMK A01 T01220009  RH  046%=      5-min Rain = 0
KVP1 150920Z 21012KT 12/01 A2997 RMK A01 T01220009  RH  046%=      5-min Rain = 0
KVP1 150921Z 21012KT 12/01 A2998 RMK A01 T01220009  RH  046%=      5-min Rain = 0
KVP1 150922Z 22012KT 12/01 A2998 RMK A01 T01220009  RH  046%=      5-min Rain = 0
KVP1 150923Z 22012KT 12/01 A2998 RMK A01 T01210009  RH  046%=      5-min Rain = 0
KVP1 150924Z 22013KT 12/01 A2998 RMK A01 T01210009  RH  046%=      5-min Rain = 0
KVP1 150925Z 22012KT 12/01 A2998 RMK A01 T01220010  RH  046%=      5-min Rain = 0
KVP1 150926Z 22012KT 12/01 A2998 RMK A01 T01220010  RH  046%=      5-min Rain = 0
KVP1 150927Z 22011KT 12/01 A2998 RMK A01 T01210010  RH  047%=      5-min Rain = 0
KVP1 150928Z 22011KT 12/01 A2998 RMK A01 T01200010  RH  047%=      5-min Rain = 0
KVP1 150929Z 22011KT 12/01 A2998 RMK A01 T01200011  RH  047%=      5-min Rain = 0
KVP1 150930Z 22012KT 12/01 A2998 RMK A01 T01190011  RH  048%=      5-min Rain = 0
KVP1 150931Z 22012KT 12/01 A2998 RMK A01 T01190012  RH  048%=      5-min Rain = 0
KVP1 150932Z 22011KT 12/01 A2998 RMK A01 T01190013  RH  048%=      5-min Rain = 0
KVP1 150933Z 22012KT 12/01 A2998 RMK A01 T01190013  RH  048%=      5-min Rain = 0
KVP1 150934Z 21012KT 12/01 A2997 RMK A01 T01190013  RH  048%=      5-min Rain = 0
KVP1 150935Z 21013KT 12/01 A2997 RMK A01 T01200014  RH  048%=      5-min Rain = 0
KVP1 150936Z 21014KT 12/01 A2997 RMK A01 T01210014  RH  048%=      5-min Rain = 0
KVP1 150937Z 21012KT 12/01 A2997 RMK A01 T01220014  RH  048%=      5-min Rain = 0
KVP1 150938Z 21012KT 12/01 A2997 RMK A01 T01210014  RH  048%=      5-min Rain = 0
KVP1 150939Z 21011KT 12/01 A2997 RMK A01 T01200014  RH  048%=      5-min Rain = 0
KVP1 150940Z 21012KT 12/01 A2997 RMK A01 T01190013  RH  048%=      5-min Rain = 0
KVP1 150941Z 21013KT 12/01 A2997 RMK A01 T01190012  RH  048%=      5-min Rain = 0
KVP1 150942Z 21013KT 12/01 A2997 RMK A01 T01190012  RH  048%=      5-min Rain = 0
KVP1 150943Z 21013KT 12/01 A2997 RMK A01 T01190012  RH  048%=      5-min Rain = 0
KVP1 150944Z 21013KT 12/01 A2997 RMK A01 T01200012  RH  048%=      5-min Rain = 0
KVP1 150945Z 21013KT 12/01 A2997 RMK A01 T01200012  RH  048%=      5-min Rain = 0
KVP1 150946Z 21013G18KT 12/01 A2997 RMK A01 T01200012  RH  048%=      5-min Rain = 0
KVP1 150947Z 21012KT 12/01 A2997 RMK A01 T01210013  RH  048%=      5-min Rain = 0
KVP1 150948Z 21013KT 12/01 A2997 RMK A01 T01210013  RH  048%=      5-min Rain = 0
KVP1 150949Z 22013KT 12/01 A2997 RMK A01 T01220014  RH  048%=      5-min Rain = 0
KVP1 150950Z 22012KT 12/02 A2997 RMK A01 T01230015  RH  047%=      5-min Rain = 0
KVP1 150951Z 22013KT 12/01 A2997 RMK A01 T01230014  RH  047%=      5-min Rain = 0
KVP1 150952Z 22014KT 12/02 A2997 RMK A01 T01240015  RH  047%=      5-min Rain = 0
KVP1 150953Z 22014KT 12/02 A2997 RMK A01 T01240015  RH  047%=      5-min Rain = 0
KVP1 150954Z 22014KT 12/01 A2997 RMK A01 T01240014  RH  047%=      5-min Rain = 0
KVP1 150955Z 22012KT 12/02 A2997 RMK A01 T01240015  RH  047%=      5-min Rain = 0
KVP1 150956Z 22012KT 12/02 A2997 RMK A01 T01240015  RH  047%=      5-min Rain = 0
KVP1 150957Z 22013KT 12/02 A2997 RMK A01 T01230015  RH  048%=      5-min Rain = 0
KVP1 150958Z 21013KT 12/02 A2997 RMK A01 T01230016  RH  048%=      5-min Rain = 0
KVP1 150959Z 21012KT 12/02 A2997 RMK A01 T01230016  RH  048%=      5-min Rain = 0
KVP1 151000Z 21011KT 12/02 A2997 RMK A01 T01230017  RH  048%=      5-min Rain = 0
KVP1 151001Z 21012KT 12/02 A2997 RMK A01 T01220016  RH  048%=      5-min Rain = 0
KVP1 151002Z 22011KT 12/02 A2996 RMK A01 T01220016  RH  048%=      5-min Rain = 0
KVP1 151003Z 22011KT 12/02 A2996 RMK A01 T01210015  RH  048%=      5-min Rain = 0
KVP1 151004Z 21012KT 12/01 A2996 RMK A01 T01200014  RH  048%=      5-min Rain = 0
KVP1 151005Z 22011KT 12/02 A2996 RMK A01 T01190015  RH  049%=      5-min Rain = 0
KVP1 151006Z 22011KT 12/01 A2996 RMK A01 T01190014  RH  049%=      5-min Rain = 0
KVP1 151007Z 22011KT 12/02 A2996 RMK A01 T01190015  RH  049%=      5-min Rain = 0
KVP1 151008Z 22011KT 12/01 A2996 RMK A01 T01180014  RH  049%=      5-min Rain = 0
KVP1 151009Z 22011KT 12/01 A2996 RMK A01 T01170014  RH  049%=      5-min Rain = 0
KVP1 151010Z 22011KT 12/01 A2996 RMK A01 T01170014  RH  049%=      5-min Rain = 0
KVP1 151011Z 22010KT 12/01 A2996 RMK A01 T01170013  RH  049%=      5-min Rain = 0
KVP1 151012Z 22010KT 12/01 A2997 RMK A01 T01170014  RH  049%=      5-min Rain = 0
KVP1 151013Z 22012KT 12/01 A2997 RMK A01 T01160013  RH  049%=      5-min Rain = 0
KVP1 151014Z 23011KT 12/01 A2997 RMK A01 T01160013  RH  049%=      5-min Rain = 0
KVP1 151015Z 23011KT 12/01 A2997 RMK A01 T01150013  RH  049%=      5-min Rain = 0
KVP1 151016Z 23010KT 11/01 A2997 RMK A01 T01140012  RH  050%=      5-min Rain = 0
KVP1 151017Z 23010KT 11/01 A2997 RMK A01 T01120012  RH  050%=      5-min Rain = 0
KVP1 151018Z 23011KT 11/01 A2997 RMK A01 T01120012  RH  050%=      5-min Rain = 0
KVP1 151019Z 23010KT 11/01 A2997 RMK A01 T01100011  RH  050%=      5-min Rain = 0
KVP1 151020Z 22010KT 11/01 A2997 RMK A01 T01100011  RH  051%=      5-min Rain = 0
KVP1 151021Z 22011KT 11/01 A2997 RMK A01 T01090011  RH  051%=      5-min Rain = 0
KVP1 151022Z 22011KT 11/01 A2997 RMK A01 T01090012  RH  051%=      5-min Rain = 0
KVP1 151023Z 22010KT 11/01 A2997 RMK A01 T01090011  RH  051%=      5-min Rain = 0
KVP1 151024Z 23010KT 11/01 A2997 RMK A01 T01080011  RH  051%=      5-min Rain = 0
KVP1 151025Z 23010KT 11/01 A2997 RMK A01 T01080011  RH  051%=      5-min Rain = 0
KVP1 151026Z 23010KT 11/01 A2997 RMK A01 T01080011  RH  051%=      5-min Rain = 0
KVP1 151027Z 24010KT 11/01 A2997 RMK A01 T01070011  RH  051%=      5-min Rain = 0
KVP1 151028Z 24010KT 11/01 A2997 RMK A01 T01070011  RH  051%=      5-min Rain = 0
KVP1 151029Z 24010KT 11/01 A2997 RMK A01 T01060010  RH  051%=      5-min Rain = 0
KVP1 151030Z 24010KT 11/01 A2997 RMK A01 T01060010  RH  052%=      5-min Rain = 0
KVP1 151031Z 24009KT 11/01 A2997 RMK A01 T01050010  RH  052%=      5-min Rain = 0
KVP1 151032Z 23009KT 11/01 A2997 RMK A01 T01050010  RH  052%=      5-min Rain = 0
KVP1 151033Z 23009KT 10/01 A2997 RMK A01 T01040009  RH  052%=      5-min Rain = 0
KVP1 151034Z 24009KT 10/01 A2997 RMK A01 T01030009  RH  052%=      5-min Rain = 0
KVP1 151035Z 23009KT 10/01 A2997 RMK A01 T01020008  RH  052%=      5-min Rain = 0
KVP1 151036Z 23008KT 10/01 A2997 RMK A01 T01020009  RH  052%=      5-min Rain = 0
KVP1 151037Z 23008KT 10/01 A2997 RMK A01 T01010008  RH  052%=      5-min Rain = 0
KVP1 151038Z 23009KT 10/01 A2997 RMK A01 T00990007  RH  053%=      5-min Rain = 0
KVP1 151039Z 23009KT 10/01 A2997 RMK A01 T00980007  RH  053%=      5-min Rain = 0
KVP1 151040Z 23008KT 10/01 A2997 RMK A01 T00970007  RH  053%=      5-min Rain = 0
KVP1 151041Z 23009KT 10/01 A2997 RMK A01 T00960006  RH  054%=      5-min Rain = 0
KVP1 151042Z 23008KT 10/01 A2996 RMK A01 T00950006  RH  054%=      5-min Rain = 0
KVP1 151043Z 23008KT 09/01 A2996 RMK A01 T00940006  RH  054%=      5-min Rain = 0
KVP1 151044Z 23008KT 09/01 A2996 RMK A01 T00940006  RH  054%=      5-min Rain = 0
KVP1 151045Z 24008KT 09/01 A2996 RMK A01 T00930006  RH  054%=      5-min Rain = 0
KVP1 151046Z 24007KT 09/01 A2996 RMK A01 T00920006  RH  055%=      5-min Rain = 0
KVP1 151047Z 25008KT 09/01 A2996 RMK A01 T00920005  RH  055%=      5-min Rain = 0
KVP1 151048Z 25008KT 09/01 A2997 RMK A01 T00910005  RH  055%=      5-min Rain = 0
KVP1 151049Z 25007KT 09/01 A2996 RMK A01 T00900005  RH  055%=      5-min Rain = 0
KVP1 151050Z 25008KT 09/00 A2996 RMK A01 T00900004  RH  055%=      5-min Rain = 0
KVP1 151051Z 24008KT 09/00 A2996 RMK A01 T00890004  RH  055%=      5-min Rain = 0
KVP1 151052Z 24008KT 09/00 A2996 RMK A01 T00880003  RH  055%=      5-min Rain = 0
KVP1 151053Z 23009KT 09/00 A2996 RMK A01 T00870003  RH  056%=      5-min Rain = 0
KVP1 151054Z 23009KT 09/00 A2996 RMK A01 T00860003  RH  056%=      5-min Rain = 0
KVP1 151055Z 23010KT 09/00 A2996 RMK A01 T00860003  RH  056%=      5-min Rain = 0
KVP1 151056Z 22009KT 09/00 A2996 RMK A01 T00860004  RH  056%=      5-min Rain = 0
KVP1 151057Z 22009KT 09/00 A2996 RMK A01 T00860004  RH  056%=      5-min Rain = 0
KVP1 151058Z 22009KT 09/00 A2996 RMK A01 T00850003  RH  056%=      5-min Rain = 0
KVP1 151059Z 22009KT 09/00 A2996 RMK A01 T00850004  RH  057%=      5-min Rain = 0
KVP1 151100Z 23009KT 08/00 A2996 RMK A01 T00840003  RH  057%=      5-min Rain = 0
KVP1 151101Z 23009KT 08/00 A2996 RMK A01 T00840003  RH  057%=      5-min Rain = 0
KVP1 151102Z 23009KT 08/00 A2996 RMK A01 T00830004  RH  057%=      5-min Rain = 0
KVP1 151103Z 23009KT 08/00 A2996 RMK A01 T00830004  RH  057%=      5-min Rain = 0
KVP1 151104Z 23009KT 08/00 A2996 RMK A01 T00820003  RH  058%=      5-min Rain = 0
KVP1 151105Z 24009KT 08/00 A2995 RMK A01 T00830004  RH  058%=      5-min Rain = 0
KVP1 151106Z 23009KT 08/00 A2995 RMK A01 T00820004  RH  058%=      5-min Rain = 0
KVP1 151107Z 23009KT 08/00 A2995 RMK A01 T00810003  RH  058%=      5-min Rain = 0
KVP1 151108Z 22010KT 08/00 A2995 RMK A01 T00810003  RH  058%=      5-min Rain = 0
KVP1 151109Z 22010KT 08/00 A2995 RMK A01 T00810004  RH  058%=      5-min Rain = 0
KVP1 151110Z 23009KT 08/00 A2995 RMK A01 T00810003  RH  058%=      5-min Rain = 0
KVP1 151111Z 23009KT 08/00 A2995 RMK A01 T00800004  RH  058%=      5-min Rain = 0
KVP1 151112Z 24008KT 08/00 A2995 RMK A01 T00800004  RH  058%=      5-min Rain = 0
KVP1 151113Z 25008KT 08/00 A2995 RMK A01 T00800003  RH  058%=      5-min Rain = 0
KVP1 151114Z 26008KT 08/00 A2995 RMK A01 T00780003  RH  059%=      5-min Rain = 0
KVP1 151115Z 26008KT 08/00 A2995 RMK A01 T00770002  RH  059%=      5-min Rain = 0
KVP1 151116Z 25008KT 08/00 A2995 RMK A01 T00760002  RH  059%=      5-min Rain = 0
KVP1 151117Z 24008KT 08/00 A2995 RMK A01 T00750002  RH  060%=      5-min Rain = 0
KVP1 151118Z 23008KT 07/00 A2995 RMK A01 T00740001  RH  060%=      5-min Rain = 0
KVP1 151119Z 23009KT 07/00 A2995 RMK A01 T00740002  RH  060%=      5-min Rain = 0
KVP1 151120Z 24009KT 07/00 A2995 RMK A01 T00740002  RH  060%=      5-min Rain = 0
KVP1 151121Z 24009KT 07/00 A2995 RMK A01 T00740002  RH  060%=      5-min Rain = 0
KVP1 151122Z 24009KT 08/00 A2995 RMK A01 T00750002  RH  060%=      5-min Rain = 0
KVP1 151123Z 24009KT 08/00 A2995 RMK A01 T00750003  RH  060%=      5-min Rain = 0
KVP1 151124Z 24009KT 07/00 A2995 RMK A01 T00740002  RH  060%=      5-min Rain = 0
KVP1 151125Z 23009KT 07/00 A2995 RMK A01 T00740003  RH  060%=      5-min Rain = 0
KVP1 151126Z 23009KT 07/00 A2995 RMK A01 T00740003  RH  061%=      5-min Rain = 0
KVP1 151127Z 23009KT 07/00 A2995 RMK A01 T00740003  RH  061%=      5-min Rain = 0
KVP1 151128Z 23009KT 07/00 A2995 RMK A01 T00740003  RH  061%=      5-min Rain = 0
KVP1 151129Z 24009KT 07/00 A2995 RMK A01 T00740003  RH  061%=      5-min Rain = 0
KVP1 151130Z 24008KT 07/00 A2995 RMK A01 T00740003  RH  061%=      5-min Rain = 0
KVP1 151131Z 24009KT 07/00 A2995 RMK A01 T00740003  RH  061%=      5-min Rain = 0
KVP1 151132Z 24009KT 07/00 A2995 RMK A01 T00740003  RH  061%=      5-min Rain = 0
KVP1 151133Z 24009KT 07/00 A2995 RMK A01 T00740003  RH  061%=      5-min Rain = 0
KVP1 151134Z 23009KT 08/00 A2995 RMK A01 T00750003  RH  061%=      5-min Rain = 0
KVP1 151135Z 23010KT 08/00 A2995 RMK A01 T00750004  RH  061%=      5-min Rain = 0
KVP1 151136Z 24010KT 08/00 A2995 RMK A01 T00750004  RH  061%=      5-min Rain = 0
KVP1 151137Z 24010KT 08/01 A2995 RMK A01 T00760005  RH  061%=      5-min Rain = 0
KVP1 151138Z 24010KT 08/01 A2995 RMK A01 T00770005  RH  060%=      5-min Rain = 0
KVP1 151139Z 24009KT 08/01 A2995 RMK A01 T00780006  RH  060%=      5-min Rain = 0
KVP1 151140Z 24009KT 08/01 A2995 RMK A01 T00780005  RH  060%=      5-min Rain = 0
KVP1 151141Z 24009KT 08/01 A2995 RMK A01 T00780005  RH  060%=      5-min Rain = 0
KVP1 151142Z 23009KT 08/01 A2995 RMK A01 T00770005  RH  060%=      5-min Rain = 0
KVP1 151143Z 23009KT 08/01 A2995 RMK A01 T00770005  RH  060%=      5-min Rain = 0
KVP1 151144Z 24009KT 08/01 A2995 RMK A01 T00770005  RH  060%=      5-min Rain = 0
KVP1 151145Z 24008KT 08/01 A2995 RMK A01 T00770005  RH  060%=      5-min Rain = 0
KVP1 151146Z 24009KT 08/01 A2995 RMK A01 T00770005  RH  060%=      5-min Rain = 0
KVP1 151147Z 24009KT 08/00 A2995 RMK A01 T00760004  RH  060%=      5-min Rain = 0
KVP1 151148Z 24009KT 08/00 A2995 RMK A01 T00760004  RH  060%=      5-min Rain = 0
KVP1 151149Z 24009KT 08/00 A2995 RMK A01 T00750004  RH  061%=      5-min Rain = 0
KVP1 151150Z 24009KT 08/00 A2995 RMK A01 T00750004  RH  061%=      5-min Rain = 0
KVP1 151151Z 24008KT 08/00 A2995 RMK A01 T00750004  RH  061%=      5-min Rain = 0
KVP1 151152Z 24008KT 07/00 A2994 RMK A01 T00740004  RH  061%=      5-min Rain = 0
KVP1 151153Z 25008KT 07/00 A2994 RMK A01 T00740004  RH  061%=      5-min Rain = 0
KVP1 151154Z 25008KT 07/00 A2994 RMK A01 T00730003  RH  061%=      5-min Rain = 0
KVP1 151155Z 26008KT 07/00 A2995 RMK A01 T00720002  RH  061%=      5-min Rain = 0
KVP1 151156Z 26008KT 07/00 A2995 RMK A01 T00710001  RH  061%=      5-min Rain = 0
KVP1 151157Z 26009KT 07/00 A2995 RMK A01 T00700001  RH  061%=      5-min Rain = 0
KVP1 151158Z 25009KT 07/00 A2995 RMK A01 T00690000  RH  062%=      5-min Rain = 0
KVP1 151159Z 25010KT 07/M00 A2995 RMK A01 T00671001  RH  062%=      5-min Rain = 0
KVP1 151200Z 24009KT 07/M00 A2995 RMK A01 T00661001  RH  062%=      5-min Rain = 0
KVP1 151201Z 24010KT 07/M00 A2995 RMK A01 T00661001  RH  062%=      5-min Rain = 0
KVP1 151202Z 24009KT 07/M00 A2994 RMK A01 T00651001  RH  063%=      5-min Rain = 0
KVP1 151203Z 24009KT 07/00 A2994 RMK A01 T006500-0  RH  063%=      5-min Rain = 0
KVP1 151204Z 24009KT 07/00 A2994 RMK A01 T006500-0  RH  063%=      5-min Rain = 0
KVP1 151205Z 24009KT 07/M00 A2995 RMK A01 T00651001  RH  063%=      5-min Rain = 0
KVP1 151206Z 24009KT 06/M00 A2995 RMK A01 T00641001  RH  063%=      5-min Rain = 0
KVP1 151207Z 24009KT 06/M00 A2995 RMK A01 T00641001  RH  063%=      5-min Rain = 0
KVP1 151208Z 24009KT 06/M00 A2995 RMK A01 T00641001  RH  063%=      5-min Rain = 0
KVP1 151209Z 25009KT 07/00 A2995 RMK A01 T006500-0  RH  063%=      5-min Rain = 0
KVP1 151210Z 25009KT 07/M00 A2995 RMK A01 T00651001  RH  063%=      5-min Rain = 0
KVP1 151211Z 25009KT 07/00 A2995 RMK A01 T006500-0  RH  063%=      5-min Rain = 0
KVP1 151212Z 25009KT 07/M00 A2995 RMK A01 T00651001  RH  063%=      5-min Rain = 0
KVP1 151213Z 24009KT 07/M00 A2995 RMK A01 T00651001  RH  063%=      5-min Rain = 0
KVP1 151214Z 24009KT 07/M00 A2995 RMK A01 T00651001  RH  063%=      5-min Rain = 0
KVP1 151215Z 24008KT 07/00 A2995 RMK A01 T006500-0  RH  063%=      5-min Rain = 0
KVP1 151216Z 24009KT 07/M00 A2995 RMK A01 T00651001  RH  063%=      5-min Rain = 0
KVP1 151217Z 24009KT 07/M00 A2995 RMK A01 T00651001  RH  063%=      5-min Rain = 0
KVP1 151218Z 24009KT 07/00 A2995 RMK A01 T006500-0  RH  063%=      5-min Rain = 0
KVP1 151219Z 24009KT 07/M00 A2995 RMK A01 T00651001  RH  063%=      5-min Rain = 0
KVP1 151220Z 24009KT 07/00 A2995 RMK A01 T006500-0  RH  063%=      5-min Rain = 0
KVP1 151221Z 24010KT 07/M00 A2995 RMK A01 T00651001  RH  063%=      5-min Rain = 0
KVP1 151222Z 24009KT 07/M00 A2995 RMK A01 T00651001  RH  063%=      5-min Rain = 0
KVP1 151223Z 24010KT 07/00 A2995 RMK A01 T00650000  RH  063%=      5-min Rain = 0
KVP1 151224Z 24010KT 07/00 A2995 RMK A01 T00660001  RH  063%=      5-min Rain = 0
KVP1 151225Z 24010KT 07/00 A2995 RMK A01 T00670002  RH  063%=      5-min Rain = 0
KVP1 151226Z 24011KT 07/00 A2995 RMK A01 T00690003  RH  063%=      5-min Rain = 0
KVP1 151227Z 24011KT 07/00 A2995 RMK A01 T00700004  RH  063%=      5-min Rain = 0
KVP1 151228Z 24011KT 07/00 A2995 RMK A01 T00720004  RH  062%=      5-min Rain = 0
KVP1 151229Z 24010KT 07/00 A2995 RMK A01 T00730004  RH  062%=      5-min Rain = 0
KVP1 151230Z 24011KT 07/00 A2995 RMK A01 T00730004  RH  061%=      5-min Rain = 0
KVP1 151231Z 24010KT 07/00 A2995 RMK A01 T00740004  RH  061%=      5-min Rain = 0
KVP1 151232Z 24010KT 08/00 A2995 RMK A01 T00750004  RH  061%=      5-min Rain = 0
KVP1 151233Z 25010KT 07/00 A2995 RMK A01 T00740004  RH  061%=      5-min Rain = 0
KVP1 151234Z 25010KT 07/00 A2995 RMK A01 T00740004  RH  061%=      5-min Rain = 0
KVP1 151235Z 25010KT 07/00 A2995 RMK A01 T00730004  RH  061%=      5-min Rain = 0
KVP1 151236Z 25010KT 07/00 A2995 RMK A01 T00730003  RH  061%=      5-min Rain = 0
KVP1 151237Z 25010KT 07/00 A2995 RMK A01 T00720003  RH  061%=      5-min Rain = 0
KVP1 151238Z 25010KT 07/00 A2995 RMK A01 T00710002  RH  061%=      5-min Rain = 0
KVP1 151239Z 25010KT 07/00 A2995 RMK A01 T00710002  RH  062%=      5-min Rain = 0
KVP1 151240Z 25009KT 07/00 A2995 RMK A01 T00710002  RH  062%=      5-min Rain = 0
KVP1 151241Z 25010KT 07/00 A2995 RMK A01 T00700002  RH  062%=      5-min Rain = 0
KVP1 151242Z 26009KT 07/00 A2995 RMK A01 T00700002  RH  062%=      5-min Rain = 0
KVP1 151243Z 26009KT 07/00 A2995 RMK A01 T00690001  RH  062%=      5-min Rain = 0
KVP1 151244Z 27008KT 07/00 A2995 RMK A01 T00690001  RH  062%=      5-min Rain = 0
KVP1 151245Z 28008KT 07/M00 A2995 RMK A01 T00671001  RH  062%=      5-min Rain = 0
KVP1 151246Z 29010KT 07/M00 A2996 RMK A01 T00661002  RH  062%=      5-min Rain = 0
KVP1 151247Z 31011KT 07/M00 A2996 RMK A01 T00651001  RH  063%=      5-min Rain = 0
KVP1 151248Z 31010KT 06/00 A2996 RMK A01 T00640001  RH  064%=      5-min Rain = 0
KVP1 151249Z 31010KT 06/00 A2996 RMK A01 T00620002  RH  066%=      5-min Rain = 0
KVP1 151250Z 30010KT 06/00 A2996 RMK A01 T00620004  RH  066%=      5-min Rain = 0
KVP1 151251Z 29009KT 06/00 A2996 RMK A01 T00610004  RH  067%=      5-min Rain = 0
KVP1 151252Z 28008KT 06/01 A2996 RMK A01 T00620005  RH  067%=      5-min Rain = 0
KVP1 151253Z 29010KT 06/01 A2996 RMK A01 T00630006  RH  067%=      5-min Rain = 0
KVP1 151254Z 29011KT 07/01 A2996 RMK A01 T00650006  RH  066%=      5-min Rain = 0
KVP1 151255Z 30011KT 07/01 A2996 RMK A01 T00660007  RH  066%=      5-min Rain = 0
KVP1 151256Z 30011KT 07/01 A2996 RMK A01 T00660006  RH  066%=      5-min Rain = 0
KVP1 151257Z 30011KT 07/01 A2996 RMK A01 T00660006  RH  066%=      5-min Rain = 0
KVP1 151258Z 31011KT 07/01 A2996 RMK A01 T00660007  RH  066%=      5-min Rain = 0
KVP1 151259Z 30010KT 07/01 A2996 RMK A01 T00660007  RH  066%=      5-min Rain = 0
KVP1 151300Z 29009KT 07/01 A2997 RMK A01 T00660008  RH  066%=      5-min Rain = 0
KVP1 151301Z 30008KT 07/01 A2997 RMK A01 T00670008  RH  066%=      5-min Rain = 0
KVP1 151302Z 31009KT 07/01 A2997 RMK A01 T00670008  RH  066%=      5-min Rain = 0
KVP1 151303Z 31009KT 07/01 A2997 RMK A01 T00670008  RH  066%=      5-min Rain = 0
KVP1 151304Z 32010KT 07/01 A2997 RMK A01 T00670008  RH  066%=      5-min Rain = 0
KVP1 151305Z 32010KT 07/01 A2997 RMK A01 T00650008  RH  067%=      5-min Rain = 0
KVP1 151306Z 31009KT 06/01 A2997 RMK A01 T00640008  RH  067%=      5-min Rain = 0
KVP1 151307Z 31010KT 06/01 A2997 RMK A01 T00630008  RH  068%=      5-min Rain = 0
KVP1 151308Z 31010KT 06/01 A2997 RMK A01 T00630009  RH  068%=      5-min Rain = 0
KVP1 151309Z 31009KT 06/01 A2997 RMK A01 T00630009  RH  069%=      5-min Rain = 0
KVP1 151310Z 31008KT 06/01 A2997 RMK A01 T00620009  RH  069%=      5-min Rain = 0
KVP1 151311Z 30008KT 06/01 A2997 RMK A01 T00620010  RH  069%=      5-min Rain = 0
KVP1 151312Z 30009KT 06/01 A2997 RMK A01 T00620010  RH  069%=      5-min Rain = 0
KVP1 151313Z 30009KT 06/01 A2997 RMK A01 T00620011  RH  070%=      5-min Rain = 0
KVP1 151314Z 30010KT 06/01 A2997 RMK A01 T00620012  RH  070%=      5-min Rain = 0
KVP1 151315Z 30011KT 06/01 A2997 RMK A01 T00640013  RH  070%=      5-min Rain = 0
KVP1 151316Z 30011KT 07/01 A2997 RMK A01 T00650014  RH  070%=      5-min Rain = 0
KVP1 151317Z 30011KT 07/01 A2997 RMK A01 T00650014  RH  070%=      5-min Rain = 0
KVP1 151318Z 29011KT 07/02 A2997 RMK A01 T00660015  RH  070%=      5-min Rain = 0
KVP1 151319Z 29011KT 07/02 A2997 RMK A01 T00670017  RH  070%=      5-min Rain = 0
KVP1 151320Z 30011KT 07/02 A2997 RMK A01 T00700018  RH  070%=      5-min Rain = 0
KVP1 151321Z 29010KT 07/02 A2997 RMK A01 T00710019  RH  069%=      5-min Rain = 0
KVP1 151322Z 29010KT 07/02 A2997 RMK A01 T00720019  RH  069%=      5-min Rain = 0
KVP1 151323Z 29010KT 07/02 A2997 RMK A01 T00720019  RH  069%=      5-min Rain = 0
KVP1 151324Z 29010KT 07/02 A2997 RMK A01 T00730020  RH  069%=      5-min Rain = 0
KVP1 151325Z 29010KT 07/02 A2997 RMK A01 T00740021  RH  069%=      5-min Rain = 0
KVP1 151326Z 29011KT 07/02 A2997 RMK A01 T00740021  RH  069%=      5-min Rain = 0
KVP1 151327Z 29011KT 08/02 A2997 RMK A01 T00750021  RH  069%=      5-min Rain = 0
KVP1 151328Z 29010KT 08/02 A2997 RMK A01 T00750022  RH  069%=      5-min Rain = 0
KVP1 151329Z 29010KT 08/02 A2997 RMK A01 T00760022  RH  069%=      5-min Rain = 0
KVP1 151330Z 29011KT 08/02 A2997 RMK A01 T00760023  RH  069%=      5-min Rain = 0
KVP1 151331Z 29010KT 08/02 A2997 RMK A01 T00770024  RH  069%=      5-min Rain = 0
KVP1 151332Z 29010KT 08/02 A2997 RMK A01 T00780024  RH  069%=      5-min Rain = 0
KVP1 151333Z 29010KT 08/03 A2996 RMK A01 T00780025  RH  069%=      5-min Rain = 0
KVP1 151334Z 29009KT 08/02 A2996 RMK A01 T00780024  RH  069%=      5-min Rain = 0
KVP1 151335Z 29009KT 08/02 A2996 RMK A01 T00780024  RH  069%=      5-min Rain = 0
KVP1 151336Z 29008KT 08/02 A2996 RMK A01 T00770024  RH  069%=      5-min Rain = 0
KVP1 151337Z 28008KT 08/02 A2996 RMK A01 T00760024  RH  069%=      5-min Rain = 0
KVP1 151338Z 28008KT 08/02 A2996 RMK A01 T00750023  RH  070%=      5-min Rain = 0
KVP1 151339Z 29008KT 07/02 A2996 RMK A01 T00740022  RH  070%=      5-min Rain = 0
KVP1 151340Z 29008KT 07/02 A2996 RMK A01 T00720022  RH  070%=      5-min Rain = 0
KVP1 151341Z 28006KT 07/02 A2996 RMK A01 T00710022  RH  071%=      5-min Rain = 0
KVP1 151342Z 29008KT 07/02 A2996 RMK A01 T00700021  RH  071%=      5-min Rain = 0
KVP1 151343Z 28009KT 07/02 A2996 RMK A01 T00700021  RH  071%=      5-min Rain = 0
KVP1 151344Z 28009KT 07/02 A2996 RMK A01 T00700022  RH  072%=      5-min Rain = 0
KVP1 151345Z 30008KT 07/02 A2996 RMK A01 T00700023  RH  072%=      5-min Rain = 0
KVP1 151346Z 29008KT 07/02 A2996 RMK A01 T00710023  RH  071%=      5-min Rain = 0
KVP1 151347Z 29008KT 07/02 A2996 RMK A01 T00710023  RH  071%=      5-min Rain = 0
KVP1 151348Z 28008KT 07/02 A2996 RMK A01 T00710023  RH  071%=      5-min Rain = 0
KVP1 151349Z 29007KT 07/02 A2996 RMK A01 T00710023  RH  072%=      5-min Rain = 0
KVP1 151350Z 29007KT 07/02 A2996 RMK A01 T00700022  RH  071%=      5-min Rain = 0
KVP1 151351Z 29008KT 07/02 A2996 RMK A01 T00700022  RH  071%=      5-min Rain = 0
KVP1 151352Z 28009KT 07/02 A2997 RMK A01 T00700022  RH  072%=      5-min Rain = 0
KVP1 151353Z 28009KT 07/02 A2997 RMK A01 T00690022  RH  072%=      5-min Rain = 0
KVP1 151354Z 26007KT 07/02 A2997 RMK A01 T00690022  RH  072%=      5-min Rain = 0
KVP1 151355Z 28007KT 07/02 A2996 RMK A01 T00690022  RH  072%=      5-min Rain = 0
KVP1 151356Z 28007KT 07/02 A2996 RMK A01 T00690022  RH  072%=      5-min Rain = 0
KVP1 151357Z 27008KT 07/02 A2996 RMK A01 T00690022  RH  072%=      5-min Rain = 0
KVP1 151358Z 27008KT 07/02 A2997 RMK A01 T00700022  RH  072%=      5-min Rain = 0
KVP1 151359Z 27008KT 07/02 A2997 RMK A01 T00700021  RH  071%=      5-min Rain = 0
KVP1 151400Z 27008KT 07/02 A2997 RMK A01 T00710022  RH  071%=      5-min Rain = 0
KVP1 151401Z 27009KT 07/02 A2997 RMK A01 T00710022  RH  071%=      5-min Rain = 0
KVP1 151402Z 27009KT 07/02 A2997 RMK A01 T00720022  RH  071%=      5-min Rain = 0
KVP1 151403Z 28009KT 07/02 A2997 RMK A01 T00720022  RH  070%=      5-min Rain = 0
KVP1 151404Z 28009KT 07/02 A2997 RMK A01 T00730022  RH  070%=      5-min Rain = 0
KVP1 151405Z 28008KT 07/02 A2997 RMK A01 T00730022  RH  070%=      5-min Rain = 0
KVP1 151406Z 28008KT 07/02 A2996 RMK A01 T00730023  RH  070%=      5-min Rain = 0
KVP1 151407Z 29008KT 07/02 A2996 RMK A01 T00730022  RH  070%=      5-min Rain = 0
KVP1 151408Z 29008KT 07/02 A2996 RMK A01 T00730023  RH  070%=      5-min Rain = 0
KVP1 151409Z 27007KT 07/02 A2996 RMK A01 T00730023  RH  070%=      5-min Rain = 0
KVP1 151410Z 26007KT 07/02 A2996 RMK A01 T00730023  RH  070%=      5-min Rain = 0
KVP1 151411Z 27008KT 07/02 A2997 RMK A01 T00730022  RH  070%=      5-min Rain = 0
KVP1 151412Z 27008KT 07/02 A2997 RMK A01 T00730021  RH  070%=      5-min Rain = 0
KVP1 151413Z 28008KT 07/02 A2997 RMK A01 T00720021  RH  070%=      5-min Rain = 0
KVP1 151414Z 28008KT 07/02 A2997 RMK A01 T00720020  RH  070%=      5-min Rain = 0
KVP1 151415Z 28009KT 07/02 A2997 RMK A01 T00720021  RH  070%=      5-min Rain = 0
KVP1 151416Z 28009KT 07/02 A2997 RMK A01 T00720021  RH  070%=      5-min Rain = 0
KVP1 151417Z 29009KT 07/02 A2997 RMK A01 T00720022  RH  070%=      5-min Rain = 0
KVP1 151418Z 29010KT 07/02 A2996 RMK A01 T00740023  RH  070%=      5-min Rain = 0
KVP1 151419Z 29009KT 08/03 A2996 RMK A01 T00750025  RH  071%=      5-min Rain = 0
KVP1 151420Z 29009KT 08/03 A2996 RMK A01 T00770027  RH  070%=      5-min Rain = 0
KVP1 151421Z 28009KT 08/03 A2996 RMK A01 T00790027  RH  070%=      5-min Rain = 0
KVP1 151422Z 28009KT 08/03 A2996 RMK A01 T00800027  RH  069%=      5-min Rain = 0
KVP1 151423Z 28009KT 08/03 A2996 RMK A01 T00800027  RH  069%=      5-min Rain = 0
KVP1 151424Z 28009KT 08/03 A2996 RMK A01 T00810028  RH  069%=      5-min Rain = 0
KVP1 151425Z 28009KT 08/03 A2996 RMK A01 T00820028  RH  069%=      5-min Rain = 0
KVP1 151426Z 28009KT 08/03 A2996 RMK A01 T00830029  RH  069%=      5-min Rain = 0
KVP1 151427Z 28009KT 08/03 A2996 RMK A01 T00840030  RH  069%=      5-min Rain = 0
KVP1 151428Z 28009KT 09/03 A2997 RMK A01 T00860030  RH  068%=      5-min Rain = 0
KVP1 151429Z 28009KT 09/03 A2997 RMK A01 T00870031  RH  068%=      5-min Rain = 0
KVP1 151430Z 28009KT 09/03 A2997 RMK A01 T00880031  RH  068%=      5-min Rain = 0
KVP1 151431Z 28010KT 09/03 A2997 RMK A01 T00890033  RH  068%=      5-min Rain = 0
KVP1 151432Z 28010KT 09/03 A2997 RMK A01 T00910034  RH  067%=      5-min Rain = 0
KVP1 151433Z 28010KT 09/04 A2996 RMK A01 T00930035  RH  067%=      5-min Rain = 0
KVP1 151434Z 28010KT 10/04 A2996 RMK A01 T00950036  RH  067%=      5-min Rain = 0
KVP1 151435Z 28011KT 10/04 A2997 RMK A01 T00960036  RH  066%=      5-min Rain = 0
KVP1 151436Z 28010KT 10/04 A2997 RMK A01 T00970037  RH  066%=      5-min Rain = 0
KVP1 151437Z 28010KT 10/04 A2997 RMK A01 T00980037  RH  065%=      5-min Rain = 0
KVP1 151438Z 28010KT 10/04 A2997 RMK A01 T00990036  RH  065%=      5-min Rain = 0
KVP1 151439Z 28010KT 10/04 A2997 RMK A01 T00990036  RH  065%=      5-min Rain = 0
KVP1 151440Z 28010KT 10/04 A2997 RMK A01 T00990036  RH  065%=      5-min Rain = 0
KVP1 151441Z 28010KT 10/04 A2997 RMK A01 T00990036  RH  065%=      5-min Rain = 0
KVP1 151442Z 29010KT 10/04 A2997 RMK A01 T01000036  RH  065%=      5-min Rain = 0
KVP1 151443Z 28011KT 10/04 A2997 RMK A01 T01000036  RH  064%=      5-min Rain = 0
KVP1 151444Z 28010KT 10/04 A2997 RMK A01 T01000036  RH  064%=      5-min Rain = 0
KVP1 151445Z 28010KT 10/04 A2997 RMK A01 T01000036  RH  064%=      5-min Rain = 0
KVP1 151446Z 29010KT 10/04 A2997 RMK A01 T01000036  RH  064%=      5-min Rain = 0
KVP1 151447Z 29010KT 10/04 A2997 RMK A01 T01010036  RH  064%=      5-min Rain = 0
KVP1 151448Z 28010KT 10/04 A2997 RMK A01 T01010036  RH  064%=      5-min Rain = 0
KVP1 151449Z 29010KT 10/04 A2997 RMK A01 T01010036  RH  064%=      5-min Rain = 0
KVP1 151450Z 29008KT 10/04 A2997 RMK A01 T01020036  RH  064%=      5-min Rain = 0
KVP1 151451Z 29009KT 10/04 A2997 RMK A01 T01020037  RH  064%=      5-min Rain = 0
KVP1 151452Z 28008KT 10/04 A2997 RMK A01 T01030037  RH  064%=      5-min Rain = 0
KVP1 151453Z 28009KT 10/04 A2997 RMK A01 T01040038  RH  063%=      5-min Rain = 0
KVP1 151454Z 28009KT 11/04 A2997 RMK A01 T01050038  RH  063%=      5-min Rain = 0
KVP1 151455Z 28008KT 11/04 A2997 RMK A01 T01060038  RH  063%=      5-min Rain = 0
KVP1 151456Z 28008KT 11/04 A2997 RMK A01 T01060038  RH  063%=      5-min Rain = 0
KVP1 151457Z 28010KT 11/04 A2997 RMK A01 T01070039  RH  063%=      5-min Rain = 0
KVP1 151458Z 28010KT 11/04 A2997 RMK A01 T01080039  RH  062%=      5-min Rain = 0
KVP1 151459Z 28010KT 11/04 A2997 RMK A01 T01090039  RH  062%=      5-min Rain = 0
KVP1 151500Z 28008KT 11/04 A2997 RMK A01 T01090039  RH  062%=      5-min Rain = 0
KVP1 151501Z 28009KT 11/04 A2997 RMK A01 T01090039  RH  062%=      5-min Rain = 0
KVP1 151502Z 27009KT 11/04 A2998 RMK A01 T01090039  RH  062%=      5-min Rain = 0
KVP1 151503Z 27008KT 11/04 A2998 RMK A01 T01090039  RH  062%=      5-min Rain = 0
KVP1 151504Z 27009KT 11/04 A2998 RMK A01 T01090039  RH  062%=      5-min Rain = 0
KVP1 151505Z 27008KT 11/04 A2998 RMK A01 T01100040  RH  062%=      5-min Rain = 0
KVP1 151506Z 27007KT 11/04 A2998 RMK A01 T01110040  RH  062%=      5-min Rain = 0
KVP1 151507Z 27008KT 11/04 A2998 RMK A01 T01110040  RH  061%=      5-min Rain = 0
KVP1 151508Z 27008KT 11/04 A2998 RMK A01 T01120041  RH  061%=      5-min Rain = 0
KVP1 151509Z 27008KT 11/04 A2998 RMK A01 T01130041  RH  061%=      5-min Rain = 0
KVP1 151510Z 27008KT 11/04 A2998 RMK A01 T01140041  RH  061%=      5-min Rain = 0
KVP1 151511Z 27009KT 12/04 A2998 RMK A01 T01150041  RH  061%=      5-min Rain = 0
KVP1 151512Z 27008KT 12/04 A2998 RMK A01 T01170043  RH  061%=      5-min Rain = 0
KVP1 151513Z 27008KT 12/04 A2998 RMK A01 T01180043  RH  060%=      5-min Rain = 0
KVP1 151514Z 27008KT 12/04 A2998 RMK A01 T01200044  RH  060%=      5-min Rain = 0
KVP1 151515Z 27009KT 12/04 A2998 RMK A01 T01210044  RH  059%=      5-min Rain = 0
KVP1 151516Z 27009KT 12/04 A2998 RMK A01 T01220044  RH  059%=      5-min Rain = 0
KVP1 151517Z 27007KT 12/04 A2998 RMK A01 T01220044  RH  059%=      5-min Rain = 0
KVP1 151518Z 27008KT 12/05 A2998 RMK A01 T01230045  RH  059%=      5-min Rain = 0
KVP1 151519Z 27009KT 12/05 A2998 RMK A01 T01240045  RH  059%=      5-min Rain = 0
KVP1 151520Z 27008KT 13/05 A2998 RMK A01 T01250046  RH  058%=      5-min Rain = 0
KVP1 151521Z 27008KT 13/05 A2998 RMK A01 T01260046  RH  058%=      5-min Rain = 0
KVP1 151522Z 27008KT 13/05 A2998 RMK A01 T01280047  RH  058%=      5-min Rain = 0
KVP1 151523Z 27010KT 13/05 A2998 RMK A01 T01290047  RH  057%=      5-min Rain = 0
KVP1 151524Z 27008KT 13/05 A2998 RMK A01 T01300047  RH  057%=      5-min Rain = 0
KVP1 151525Z 27009KT 13/05 A2998 RMK A01 T01310048  RH  057%=      5-min Rain = 0
KVP1 151526Z 27011KT 13/05 A2998 RMK A01 T01320048  RH  057%=      5-min Rain = 0
KVP1 151527Z 28009KT 13/05 A2998 RMK A01 T01320048  RH  056%=      5-min Rain = 0
KVP1 151528Z 27008KT 13/05 A2998 RMK A01 T01340048  RH  056%=      5-min Rain = 0
KVP1 151529Z 27011KT 14/05 A2998 RMK A01 T01350049  RH  056%=      5-min Rain = 0
KVP1 151530Z 27012KT 14/05 A2998 RMK A01 T01350048  RH  055%=      5-min Rain = 0
KVP1 151531Z 28012KT 14/05 A2998 RMK A01 T01360048  RH  055%=      5-min Rain = 0
KVP1 151532Z 27012KT 14/05 A2998 RMK A01 T01350048  RH  056%=      5-min Rain = 0
KVP1 151533Z 27011KT 14/05 A2998 RMK A01 T01350048  RH  056%=      5-min Rain = 0
KVP1 151534Z 28011KT 14/05 A2998 RMK A01 T01360049  RH  055%=      5-min Rain = 0
KVP1 151535Z 28012KT 14/05 A2998 RMK A01 T01370049  RH  055%=      5-min Rain = 0
KVP1 151536Z 28010KT 14/05 A2998 RMK A01 T01370049  RH  055%=      5-min Rain = 0
KVP1 151537Z 28011KT 14/05 A2998 RMK A01 T01380049  RH  055%=      5-min Rain = 0
KVP1 151538Z 28012KT 14/05 A2998 RMK A01 T01390049  RH  055%=      5-min Rain = 0
KVP1 151539Z 28010KT 14/05 A2998 RMK A01 T01390049  RH  055%=      5-min Rain = 0
KVP1 151540Z 27009KT 14/05 A2998 RMK A01 T01400050  RH  055%=      5-min Rain = 0
KVP1 151541Z 28009KT 14/05 A2998 RMK A01 T01420051  RH  054%=      5-min Rain = 0
KVP1 151542Z 28011KT 14/05 A2998 RMK A01 T01430051  RH  054%=      5-min Rain = 0
KVP1 151543Z 27012KT 14/05 A2998 RMK A01 T01430051  RH  054%=      5-min Rain = 0
KVP1 151544Z 28012KT 14/05 A2998 RMK A01 T01430051  RH  054%=      5-min Rain = 0
KVP1 151545Z 28012KT 14/05 A2998 RMK A01 T01430051  RH  054%=      5-min Rain = 0
KVP1 151546Z 28012KT 14/05 A2998 RMK A01 T01430051  RH  054%=      5-min Rain = 0
KVP1 151547Z 28010KT 14/05 A2998 RMK A01 T01430051  RH  054%=      5-min Rain = 0
KVP1 151548Z 28009KT 14/05 A2998 RMK A01 T01440052  RH  054%=      5-min Rain = 0
KVP1 151549Z 28012KT 15/05 A2998 RMK A01 T01450051  RH  053%=      5-min Rain = 0
KVP1 151550Z 28011KT 15/05 A2999 RMK A01 T01460051  RH  053%=      5-min Rain = 0
KVP1 151551Z 28011KT 15/05 A2999 RMK A01 T01460051  RH  053%=      5-min Rain = 0
KVP1 151552Z 27010KT 15/05 A2998 RMK A01 T01460051  RH  053%=      5-min Rain = 0
KVP1 151553Z 28011KT 15/05 A2998 RMK A01 T01470052  RH  053%=      5-min Rain = 0
KVP1 151554Z 28011KT 15/05 A2999 RMK A01 T01470052  RH  053%=      5-min Rain = 0
KVP1 151555Z 27009KT 15/05 A2999 RMK A01 T01480052  RH  053%=      5-min Rain = 0
KVP1 151556Z 28010KT 15/05 A2999 RMK A01 T01490053  RH  052%=      5-min Rain = 0
KVP1 151557Z 27010KT 15/05 A2999 RMK A01 T01490052  RH  052%=      5-min Rain = 0
KVP1 151558Z 26011KT 15/05 A2999 RMK A01 T01490053  RH  052%=      5-min Rain = 0
KVP1 151559Z 27012KT 15/05 A2999 RMK A01 T01490053  RH  052%=      5-min Rain = 0
KVP1 151600Z 26011KT 15/05 A2999 RMK A01 T01500053  RH  052%=      5-min Rain = 0
KVP1 151601Z 27011KT 15/05 A2999 RMK A01 T01490053  RH  052%=      5-min Rain = 0
KVP1 151602Z 26011KT 15/05 A2999 RMK A01 T01500053  RH  052%=      5-min Rain = 0
KVP1 151603Z 26010KT 15/05 A2999 RMK A01 T01500053  RH  052%=      5-min Rain = 0
KVP1 151604Z 27009KT 15/05 A2999 RMK A01 T01500054  RH  052%=      5-min Rain = 0
KVP1 151605Z 27008KT 15/05 A2999 RMK A01 T01520054  RH  052%=      5-min Rain = 0
KVP1 151606Z 27008KT 15/05 A2999 RMK A01 T01530054  RH  052%=      5-min Rain = 0
KVP1 151607Z 27007KT 15/05 A2999 RMK A01 T01530054  RH  052%=      5-min Rain = 0
KVP1 151608Z 26008KT 15/06 A30 RMK A01 T01540055  RH  052%=      5-min Rain = 0
KVP1 151609Z 27009KT 16/06 A2999 RMK A01 T01550055  RH  051%=      5-min Rain = 0
KVP1 151610Z 27008KT 16/06 A2999 RMK A01 T01550055  RH  051%=      5-min Rain = 0
KVP1 151611Z 26008KT 16/06 A2999 RMK A01 T01560055  RH  051%=      5-min Rain = 0
KVP1 151612Z 26009KT 16/06 A2999 RMK A01 T01560055  RH  051%=      5-min Rain = 0
KVP1 151613Z 26010KT 16/06 A2999 RMK A01 T01560055  RH  051%=      5-min Rain = 0
KVP1 151614Z 25010KT 16/06 A2999 RMK A01 T01550055  RH  051%=      5-min Rain = 0
KVP1 151615Z 25009KT 15/06 A2999 RMK A01 T01540055  RH  052%=      5-min Rain = 0
KVP1 151616Z 26010KT 15/06 A2999 RMK A01 T01540055  RH  052%=      5-min Rain = 0
KVP1 151617Z 26009KT 15/06 A2999 RMK A01 T01540055  RH  052%=      5-min Rain = 0
KVP1 151618Z 27011KT 15/06 A2999 RMK A01 T01540056  RH  052%=      5-min Rain = 0
KVP1 151619Z 27009KT 15/06 A2999 RMK A01 T01540056  RH  052%=      5-min Rain = 0
KVP1 151620Z 27010KT 15/06 A2999 RMK A01 T01540056  RH  052%=      5-min Rain = 0
KVP1 151621Z 27008KT 16/06 A2999 RMK A01 T01550056  RH  052%=      5-min Rain = 0
KVP1 151622Z 26009KT 16/06 A2999 RMK A01 T01550056  RH  052%=      5-min Rain = 0
KVP1 151623Z 26009KT 16/06 A2999 RMK A01 T01550056  RH  052%=      5-min Rain = 0
KVP1 151624Z 26009KT 16/06 A2999 RMK A01 T01550056  RH  052%=      5-min Rain = 0
KVP1 151625Z 26008KT 16/06 A2999 RMK A01 T01550057  RH  052%=      5-min Rain = 0
KVP1 151626Z 26009KT 16/06 A30 RMK A01 T01550057  RH  052%=      5-min Rain = 0
KVP1 151627Z 26010KT 16/06 A30 RMK A01 T01560057  RH  052%=      5-min Rain = 0
KVP1 151628Z 26008KT 16/06 A30 RMK A01 T01560058  RH  052%=      5-min Rain = 0
KVP1 151629Z 26010KT 16/06 A30 RMK A01 T01570058  RH  052%=      5-min Rain = 0
KVP1 151630Z 26011KT 16/06 A30 RMK A01 T01570058  RH  052%=      5-min Rain = 0
KVP1 151631Z 27009KT 16/06 A30 RMK A01 T01570058  RH  052%=      5-min Rain = 0
KVP1 151632Z 27010KT 16/06 A30 RMK A01 T01580058  RH  051%=      5-min Rain = 0
KVP1 151633Z 27008KT 16/06 A30 RMK A01 T01580058  RH  051%=      5-min Rain = 0
KVP1 151634Z 26008KT 16/06 A30 RMK A01 T01580058  RH  051%=      5-min Rain = 0
KVP1 151635Z 27010KT 16/06 A30 RMK A01 T01580058  RH  051%=      5-min Rain = 0
KVP1 151636Z 26010KT 16/06 A30 RMK A01 T01570058  RH  052%=      5-min Rain = 0
KVP1 151637Z 27008KT 16/06 A2999 RMK A01 T01570058  RH  052%=      5-min Rain = 0
KVP1 151638Z 27008KT 16/06 A2999 RMK A01 T01570058  RH  052%=      5-min Rain = 0
KVP1 151639Z 26008KT 16/06 A2999 RMK A01 T01580058  RH  052%=      5-min Rain = 0
KVP1 151640Z 26009KT 16/06 A2999 RMK A01 T01580058  RH  051%=      5-min Rain = 0
KVP1 151641Z 26012KT 16/06 A2999 RMK A01 T01580058  RH  051%=      5-min Rain = 0
KVP1 151642Z 26011KT 16/06 A30 RMK A01 T01590058  RH  051%=      5-min Rain = 0
KVP1 151643Z 26009KT 16/06 A30 RMK A01 T01590059  RH  051%=      5-min Rain = 0
KVP1 151644Z 26010KT 16/06 A30 RMK A01 T01600059  RH  051%=      5-min Rain = 0
KVP1 151645Z 26010KT 16/06 A30 RMK A01 T01620060  RH  051%=      5-min Rain = 0
KVP1 151646Z 26011KT 16/06 A30 RMK A01 T01630059  RH  050%=      5-min Rain = 0
KVP1 151647Z 26012KT 16/06 A30 RMK A01 T01630060  RH  050%=      5-min Rain = 0
KVP1 151648Z 27013KT 16/06 A30 RMK A01 T01630059  RH  050%=      5-min Rain = 0
KVP1 151649Z 26010KT 16/06 A30 RMK A01 T01630060  RH  050%=      5-min Rain = 0
KVP1 151650Z 26009KT 16/06 A30 RMK A01 T01630060  RH  050%=      5-min Rain = 0
KVP1 151651Z 24009KT 16/06 A30 RMK A01 T01630060  RH  050%=      5-min Rain = 0
KVP1 151652Z 25008KT 16/06 A30 RMK A01 T01630059  RH  050%=      5-min Rain = 0
KVP1 151653Z 25009KT 16/06 A30 RMK A01 T01640059  RH  050%=      5-min Rain = 0
KVP1 151654Z 26012KT 17/06 A30 RMK A01 T01650059  RH  050%=      5-min Rain = 0
KVP1 151655Z 26010KT 17/06 A30 RMK A01 T01650059  RH  050%=      5-min Rain = 0
KVP1 151656Z 25011KT 17/06 A30 RMK A01 T01650059  RH  050%=      5-min Rain = 0
KVP1 151657Z 25012KT 17/06 A30 RMK A01 T01650060  RH  050%=      5-min Rain = 0
KVP1 151658Z 25012KT 17/06 A30 RMK A01 T01660059  RH  049%=      5-min Rain = 0
KVP1 151659Z 25012KT 17/06 A30 RMK A01 T01660060  RH  049%=      5-min Rain = 0
KVP1 151700Z 25010KT 17/06 A30 RMK A01 T01670059  RH  049%=      5-min Rain = 0
KVP1 151701Z 25011KT 17/06 A30 RMK A01 T01690060  RH  049%=      5-min Rain = 0
KVP1 151702Z 26009KT 17/06 A30 RMK A01 T01700060  RH  048%=      5-min Rain = 0
KVP1 151703Z 25011KT 17/06 A30 RMK A01 T01730062  RH  048%=      5-min Rain = 0
KVP1 151704Z 27013KT 17/06 A30 RMK A01 T01740060  RH  047%=      5-min Rain = 0
KVP1 151705Z 25010KT 17/06 A30 RMK A01 T01740060  RH  047%=      5-min Rain = 0
KVP1 151706Z 26011KT 18/06 A2999 RMK A01 T01750061  RH  047%=      5-min Rain = 0
KVP1 151707Z 26010KT 18/06 A2999 RMK A01 T01760061  RH  047%=      5-min Rain = 0
KVP1 151708Z 26012KT 18/06 A2999 RMK A01 T01760062  RH  047%=      5-min Rain = 0
KVP1 151709Z 27014G19KT 18/06 A2999 RMK A01 T01770060  RH  046%=      5-min Rain = 0
KVP1 151710Z 26015KT 18/06 A2999 RMK A01 T01770059  RH  046%=      5-min Rain = 0
KVP1 151711Z 27016KT 18/06 A2999 RMK A01 T01780059  RH  046%=      5-min Rain = 0
KVP1 151712Z 27015KT 18/06 A2999 RMK A01 T01790059  RH  045%=      5-min Rain = 0
KVP1 151713Z 27013KT 18/06 A2999 RMK A01 T01800059  RH  045%=      5-min Rain = 0
KVP1 151714Z 26011KT 18/06 A2999 RMK A01 T01820061  RH  045%=      5-min Rain = 0
KVP1 151715Z 25011KT 19/06 A2999 RMK A01 T01850062  RH  045%=      5-min Rain = 0
KVP1 151716Z 26014KT 19/06 A2999 RMK A01 T01890063  RH  044%=      5-min Rain = 0
KVP1 151717Z 26016KT 19/06 A2999 RMK A01 T01920062  RH  043%=      5-min Rain = 0
KVP1 151718Z 26015KT 19/06 A2999 RMK A01 T01930061  RH  042%=      5-min Rain = 0
KVP1 151719Z 26014KT 19/06 A2999 RMK A01 T01920061  RH  042%=      5-min Rain = 0
KVP1 151720Z 27015KT 19/06 A2999 RMK A01 T01930060  RH  042%=      5-min Rain = 0
KVP1 151721Z 27015KT 19/06 A2999 RMK A01 T01930060  RH  042%=      5-min Rain = 0
KVP1 151722Z 26015G20KT 19/06 A2999 RMK A01 T01930061  RH  042%=      5-min Rain = 0
KVP1 151723Z 26016KT 19/06 A2999 RMK A01 T01940060  RH  042%=      5-min Rain = 0
KVP1 151724Z 26017KT 20/06 A2999 RMK A01 T01950059  RH  041%=      5-min Rain = 0
KVP1 151725Z 26013KT 19/06 A2999 RMK A01 T01930058  RH  041%=      5-min Rain = 0
KVP1 151726Z 25017KT 19/06 A2999 RMK A01 T01910058  RH  042%=      5-min Rain = 0
KVP1 151727Z 25017KT 19/06 A2999 RMK A01 T01890057  RH  042%=      5-min Rain = 0
KVP1 151728Z 25016KT 19/06 A2999 RMK A01 T01870057  RH  042%=      5-min Rain = 0
KVP1 151729Z 26014KT 19/06 A2999 RMK A01 T01850057  RH  043%=      5-min Rain = 0
KVP1 151730Z 27014KT 18/06 A2999 RMK A01 T01840056  RH  043%=      5-min Rain = 0
KVP1 151731Z 25012KT 18/06 A2999 RMK A01 T01830056  RH  043%=      5-min Rain = 0
KVP1 151732Z 25016KT 18/06 A2999 RMK A01 T01840057  RH  043%=      5-min Rain = 0
KVP1 151733Z 25018KT 19/06 A2999 RMK A01 T01850057  RH  043%=      5-min Rain = 0
KVP1 151734Z 25017KT 19/06 A2999 RMK A01 T01860057  RH  043%=      5-min Rain = 0
KVP1 151735Z 25016KT 19/06 A2999 RMK A01 T01850056  RH  043%=      5-min Rain = 0
KVP1 151736Z 25014KT 18/06 A2999 RMK A01 T01840057  RH  043%=      5-min Rain = 0
KVP1 151737Z 26015KT 19/06 A2999 RMK A01 T01850057  RH  043%=      5-min Rain = 0
KVP1 151738Z 26017KT 19/06 A2999 RMK A01 T01860056  RH  043%=      5-min Rain = 0
KVP1 151739Z 26014KT 18/06 A2999 RMK A01 T01840055  RH  043%=      5-min Rain = 0
KVP1 151740Z 25014KT 18/06 A2999 RMK A01 T01830056  RH  043%=      5-min Rain = 0
KVP1 151741Z 25014KT 18/06 A2999 RMK A01 T01830056  RH  043%=      5-min Rain = 0
KVP1 151742Z 26015KT 18/06 A2999 RMK A01 T01820056  RH  043%=      5-min Rain = 0
KVP1 151743Z 26014KT 18/06 A2999 RMK A01 T01820056  RH  043%=      5-min Rain = 0
KVP1 151744Z 25012KT 18/06 A2999 RMK A01 T01840057  RH  043%=      5-min Rain = 0
KVP1 151745Z 25013KT 19/06 A2999 RMK A01 T01860058  RH  043%=      5-min Rain = 0
KVP1 151746Z 26014KT 19/06 A2999 RMK A01 T01880058  RH  042%=      5-min Rain = 0
KVP1 151747Z 26014KT 19/06 A2999 RMK A01 T01880057  RH  042%=      5-min Rain = 0
KVP1 151748Z 26015KT 19/06 A2999 RMK A01 T01890057  RH  042%=      5-min Rain = 0
KVP1 151749Z 26016KT 19/06 A2999 RMK A01 T01890057  RH  042%=      5-min Rain = 0
KVP1 151750Z 26016KT 19/06 A2999 RMK A01 T01900057  RH  042%=      5-min Rain = 0
KVP1 151751Z 26014G19KT 19/06 A2999 RMK A01 T01920058  RH  042%=      5-min Rain = 0
KVP1 151752Z 27015KT 19/06 A2999 RMK A01 T01940058  RH  041%=      5-min Rain = 0
KVP1 151753Z 25014KT 20/06 A2999 RMK A01 T01950058  RH  041%=      5-min Rain = 0
KVP1 151754Z 25013KT 20/06 A2999 RMK A01 T01960058  RH  041%=      5-min Rain = 0
KVP1 151755Z 26016G21KT 20/06 A2999 RMK A01 T01980059  RH  040%=      5-min Rain = 0
KVP1 151756Z 25014G20KT 20/06 A2998 RMK A01 T02000058  RH  039%=      5-min Rain = 0
KVP1 151757Z 25015KT 20/06 A2998 RMK A01 T02020059  RH  039%=      5-min Rain = 0
KVP1 151758Z 25017G22KT 20/06 A2999 RMK A01 T02040059  RH  039%=      5-min Rain = 0
KVP1 151759Z 26016G21KT 21/06 A2999 RMK A01 T02060059  RH  038%=      5-min Rain = 0
KVP1 151800Z 25015G20KT 21/06 A2998 RMK A01 T02080059  RH  038%=      5-min Rain = 0
KVP1 151801Z 25016KT 21/06 A2999 RMK A01 T02100059  RH  037%=      5-min Rain = 0
KVP1 151802Z 26015KT 21/06 A2998 RMK A01 T02120060  RH  037%=      5-min Rain = 0
KVP1 151803Z 26016KT 21/06 A2998 RMK A01 T02140059  RH  036%=      5-min Rain = 0
KVP1 151804Z 26015G20KT 21/06 A2998 RMK A01 T02140059  RH  036%=      5-min Rain = 0
KVP1 151805Z 25016G21KT 22/06 A2998 RMK A01 T02160060  RH  036%=      5-min Rain = 0
KVP1 151806Z 26018G23KT 22/06 A2998 RMK A01 T02170059  RH  036%=      5-min Rain = 0
KVP1 151807Z 27016KT 22/06 A2998 RMK A01 T02160059  RH  036%=      5-min Rain = 0
KVP1 151808Z 26016KT 22/06 A2998 RMK A01 T02160060  RH  036%=      5-min Rain = 0
KVP1 151809Z 25016KT 22/06 A2998 RMK A01 T02180060  RH  036%=      5-min Rain = 0
KVP1 151810Z 25012KT 22/06 A2998 RMK A01 T02180060  RH  036%=      5-min Rain = 0
KVP1 151811Z 25015KT 22/06 A2998 RMK A01 T02200061  RH  036%=      5-min Rain = 0
KVP1 151812Z 24018KT 22/06 A2998 RMK A01 T02230060  RH  035%=      5-min Rain = 0
KVP1 151813Z 24019KT 22/06 A2998 RMK A01 T02220060  RH  035%=      5-min Rain = 0
KVP1 151814Z 26018G23KT 22/06 A2998 RMK A01 T02220060  RH  035%=      5-min Rain = 0
KVP1 151815Z 26017G22KT 22/06 A2997 RMK A01 T02230060  RH  035%=      5-min Rain = 0
KVP1 151816Z 25021KT 23/06 A2997 RMK A01 T02250060  RH  034%=      5-min Rain = 0
KVP1 151817Z 24021KT 22/06 A2997 RMK A01 T02240059  RH  034%=      5-min Rain = 0
KVP1 151818Z 26021G26KT 22/06 A2997 RMK A01 T02240060  RH  034%=      5-min Rain = 0
KVP1 151819Z 25019KT 22/06 A2997 RMK A01 T02230058  RH  034%=      5-min Rain = 0
KVP1 151820Z 24015G20KT 22/06 A2997 RMK A01 T02220059  RH  035%=      5-min Rain = 0
KVP1 151821Z 25021KT 23/06 A2997 RMK A01 T02250061  RH  035%=      5-min Rain = 0
KVP1 151822Z 26020KT 23/06 A2997 RMK A01 T02250059  RH  034%=      5-min Rain = 0
KVP1 151823Z 25019KT 22/06 A2997 RMK A01 T02220058  RH  035%=      5-min Rain = 0
KVP1 151824Z 25019KT 22/06 A2997 RMK A01 T02210059  RH  035%=      5-min Rain = 0
KVP1 151825Z 24019G24KT 22/06 A2997 RMK A01 T02230059  RH  035%=      5-min Rain = 0
KVP1 151826Z 26021KT 23/06 A2997 RMK A01 T02250059  RH  034%=      5-min Rain = 0
KVP1 151827Z 24020KT 23/06 A2997 RMK A01 T02250059  RH  034%=      5-min Rain = 0
KVP1 151828Z 25020KT 23/06 A2997 RMK A01 T02270059  RH  034%=      5-min Rain = 0
KVP1 151829Z 25018G23KT 23/06 A2997 RMK A01 T02260058  RH  034%=      5-min Rain = 0
KVP1 151830Z 25018KT 23/06 A2997 RMK A01 T02260060  RH  034%=      5-min Rain = 0
KVP1 151831Z 26018G23KT 23/06 A2997 RMK A01 T02310061  RH  033%=      5-min Rain = 0
KVP1 151832Z 25020KT 24/06 A2997 RMK A01 T02350060  RH  032%=      5-min Rain = 0
KVP1 151833Z 25017KT 23/06 A2997 RMK A01 T02330059  RH  032%=      5-min Rain = 0
KVP1 151834Z 25018G24KT 23/06 A2997 RMK A01 T02330060  RH  033%=      5-min Rain = 0
KVP1 151835Z 25018KT 24/06 A2997 RMK A01 T02360061  RH  032%=      5-min Rain = 0
KVP1 151836Z 23021G26KT 24/06 A2997 RMK A01 T02390060  RH  032%=      5-min Rain = 0
KVP1 151837Z 25023KT 24/06 A2997 RMK A01 T02380060  RH  032%=      5-min Rain = 0
KVP1 151838Z 24024KT 24/06 A2997 RMK A01 T02360059  RH  032%=      5-min Rain = 0
KVP1 151839Z 24021KT 23/06 A2997 RMK A01 T02320059  RH  032%=      5-min Rain = 0
KVP1 151840Z 24023G28KT 23/06 A2997 RMK A01 T02320059  RH  033%=      5-min Rain = 0
KVP1 151841Z 23019KT 23/06 A2997 RMK A01 T02330059  RH  033%=      5-min Rain = 0
KVP1 151842Z 24018G23KT 23/06 A2996 RMK A01 T02310058  RH  033%=      5-min Rain = 0
KVP1 151843Z 25020G25KT 23/06 A2996 RMK A01 T02290058  RH  033%=      5-min Rain = 0
KVP1 151844Z 24020KT 23/06 A2996 RMK A01 T02280058  RH  033%=      5-min Rain = 0
KVP1 151845Z 24021KT 23/06 A2997 RMK A01 T02260058  RH  034%=      5-min Rain = 0
KVP1 151846Z 25020KT 23/06 A2997 RMK A01 T02270060  RH  034%=      5-min Rain = 0
KVP1 151847Z 24022KT 23/06 A2997 RMK A01 T02310060  RH  033%=      5-min Rain = 0
KVP1 151848Z 24023KT 23/06 A2997 RMK A01 T02320060  RH  033%=      5-min Rain = 0
KVP1 151849Z 25024KT 23/06 A2996 RMK A01 T02310059  RH  033%=      5-min Rain = 0
KVP1 151850Z 25026KT 23/06 A2997 RMK A01 T02300058  RH  033%=      5-min Rain = 0
KVP1 151851Z 24023KT 23/06 A2996 RMK A01 T02270058  RH  033%=      5-min Rain = 0
KVP1 151852Z 24023G28KT 23/06 A2996 RMK A01 T02260058  RH  034%=      5-min Rain = 0
KVP1 151853Z 25026G32KT 23/06 A2996 RMK A01 T02280059  RH  033%=      5-min Rain = 0
KVP1 151854Z 25024KT 23/06 A2996 RMK A01 T02260058  RH  034%=      5-min Rain = 0
KVP1 151855Z 24021KT 22/06 A2997 RMK A01 T02230058  RH  034%=      5-min Rain = 0
KVP1 151856Z 24023KT 22/06 A2996 RMK A01 T02230058  RH  034%=      5-min Rain = 0
KVP1 151857Z 24022G27KT 22/06 A2996 RMK A01 T02220058  RH  034%=      5-min Rain = 0
KVP1 151858Z 25021G26KT 22/06 A2997 RMK A01 T02220058  RH  035%=      5-min Rain = 0
KVP1 151859Z 25020KT 22/06 A2997 RMK A01 T02220058  RH  034%=      5-min Rain = 0
KVP1 151900Z 25018G23KT 22/06 A2996 RMK A01 T02220058  RH  035%=      5-min Rain = 0
KVP1 151901Z 24021G27KT 22/06 A2996 RMK A01 T02220058  RH  035%=      5-min Rain = 0
KVP1 151902Z 24020G25KT 22/06 A2996 RMK A01 T02210057  RH  035%=      5-min Rain = 0
KVP1 151903Z 26019KT 22/06 A2996 RMK A01 T02200058  RH  035%=      5-min Rain = 0
KVP1 151904Z 25019KT 22/06 A2996 RMK A01 T02220059  RH  035%=      5-min Rain = 0
KVP1 151905Z 25019KT 22/06 A2996 RMK A01 T02230059  RH  034%=      5-min Rain = 0
KVP1 151906Z 25023KT 22/06 A2996 RMK A01 T02230058  RH  034%=      5-min Rain = 0
KVP1 151907Z 26024KT 22/06 A2996 RMK A01 T02220058  RH  034%=      5-min Rain = 0
KVP1 151908Z 25021KT 22/06 A2996 RMK A01 T02220058  RH  034%=      5-min Rain = 0
KVP1 151909Z 25022G29KT 22/06 A2996 RMK A01 T02220058  RH  035%=      5-min Rain = 0
KVP1 151910Z 25021KT 22/06 A2996 RMK A01 T02220059  RH  035%=      5-min Rain = 0
KVP1 151911Z 24018KT 22/06 A2996 RMK A01 T02240059  RH  034%=      5-min Rain = 0
KVP1 151912Z 24021KT 23/06 A2995 RMK A01 T02280060  RH  034%=      5-min Rain = 0
KVP1 151913Z 25020G25KT 23/06 A2995 RMK A01 T02290059  RH  033%=      5-min Rain = 0
KVP1 151914Z 26025KT 23/06 A2995 RMK A01 T02260058  RH  034%=      5-min Rain = 0
KVP1 151915Z 25025KT 22/06 A2995 RMK A01 T02230057  RH  034%=      5-min Rain = 0
KVP1 151916Z 24022KT 22/06 A2995 RMK A01 T02190057  RH  035%=      5-min Rain = 0
KVP1 151917Z 24022KT 22/06 A2995 RMK A01 T02180057  RH  035%=      5-min Rain = 0
KVP1 151918Z 24020KT 22/06 A2995 RMK A01 T02170057  RH  035%=      5-min Rain = 0
KVP1 151919Z 24019G25KT 22/06 A2995 RMK A01 T02170058  RH  035%=      5-min Rain = 0
KVP1 151920Z 24018G24KT 22/06 A2995 RMK A01 T02180057  RH  035%=      5-min Rain = 0
KVP1 151921Z 24019KT 22/06 A2995 RMK A01 T02190058  RH  035%=      5-min Rain = 0
KVP1 151922Z 25018KT 22/06 A2995 RMK A01 T02190058  RH  035%=      5-min Rain = 0
KVP1 151923Z 25020G26KT 22/06 A2995 RMK A01 T02200058  RH  035%=      5-min Rain = 0
KVP1 151924Z 24021G27KT 22/06 A2994 RMK A01 T02200057  RH  035%=      5-min Rain = 0
KVP1 151925Z 24022KT 22/06 A2994 RMK A01 T02200057  RH  035%=      5-min Rain = 0
KVP1 151926Z 24019KT 22/06 A2994 RMK A01 T02190057  RH  035%=      5-min Rain = 0
KVP1 151927Z 25019G24KT 22/06 A2994 RMK A01 T02200057  RH  035%=      5-min Rain = 0
KVP1 151928Z 26018KT 22/06 A2994 RMK A01 T02210057  RH  035%=      5-min Rain = 0
KVP1 151929Z 26022KT 22/06 A2994 RMK A01 T02210057  RH  035%=      5-min Rain = 0
KVP1 151930Z 26021KT 22/06 A2994 RMK A01 T02210057  RH  034%=      5-min Rain = 0
KVP1 151931Z 26023KT 22/06 A2994 RMK A01 T02200057  RH  035%=      5-min Rain = 0
KVP1 151932Z 26024KT 22/06 A2994 RMK A01 T02210058  RH  035%=      5-min Rain = 0
KVP1 151933Z 26019KT 22/06 A2994 RMK A01 T02220058  RH  034%=      5-min Rain = 0
KVP1 151934Z 25020KT 22/06 A2994 RMK A01 T02240057  RH  034%=      5-min Rain = 0
KVP1 151935Z 25024KT 22/06 A2994 RMK A01 T02220057  RH  034%=      5-min Rain = 0
KVP1 151936Z 26020KT 22/06 A2994 RMK A01 T02190056  RH  035%=      5-min Rain = 0
KVP1 151937Z 25019G25KT 22/06 A2993 RMK A01 T02190057  RH  035%=      5-min Rain = 0
KVP1 151938Z 26018G23KT 22/06 A2994 RMK A01 T02200057  RH  035%=      5-min Rain = 0
KVP1 151939Z 26020KT 22/06 A2994 RMK A01 T02200057  RH  035%=      5-min Rain = 0
KVP1 151940Z 26019KT 22/06 A2993 RMK A01 T02200056  RH  035%=      5-min Rain = 0
KVP1 151941Z 25021KT 22/06 A2993 RMK A01 T02200057  RH  035%=      5-min Rain = 0
KVP1 151942Z 26022KT 22/06 A2993 RMK A01 T02210057  RH  035%=      5-min Rain = 0
KVP1 151943Z 26019KT 22/06 A2993 RMK A01 T02200057  RH  035%=      5-min Rain = 0
KVP1 151944Z 26022G27KT 22/06 A2993 RMK A01 T02210057  RH  035%=      5-min Rain = 0
KVP1 151945Z 25020G26KT 22/06 A2993 RMK A01 T02200057  RH  035%=      5-min Rain = 0
KVP1 151946Z 25022KT 22/06 A2993 RMK A01 T02200058  RH  035%=      5-min Rain = 0
KVP1 151947Z 25023KT 22/06 A2993 RMK A01 T02190057  RH  035%=      5-min Rain = 0
KVP1 151948Z 26021KT 22/06 A2993 RMK A01 T02180057  RH  035%=      5-min Rain = 0
KVP1 151949Z 26018KT 22/06 A2993 RMK A01 T02180056  RH  035%=      5-min Rain = 0
KVP1 151950Z 26020KT 22/06 A2993 RMK A01 T02190057  RH  035%=      5-min Rain = 0
KVP1 151951Z 26019KT 22/06 A2993 RMK A01 T02220059  RH  034%=      5-min Rain = 0
KVP1 151952Z 26023KT 23/06 A2993 RMK A01 T02250059  RH  034%=      5-min Rain = 0
KVP1 151953Z 25018KT 23/06 A2993 RMK A01 T02270059  RH  034%=      5-min Rain = 0
KVP1 151954Z 24020KT 23/06 A2993 RMK A01 T02280058  RH  033%=      5-min Rain = 0
KVP1 151955Z 24020KT 23/06 A2993 RMK A01 T02260057  RH  034%=      5-min Rain = 0
KVP1 151956Z 25015KT 22/06 A2993 RMK A01 T02230056  RH  034%=      5-min Rain = 0
KVP1 151957Z 26022KT 22/06 A2993 RMK A01 T02220057  RH  034%=      5-min Rain = 0
KVP1 151958Z 25019KT 22/06 A2993 RMK A01 T02200056  RH  035%=      5-min Rain = 0
KVP1 151959Z 25019G24KT 22/06 A2993 RMK A01 T02190057  RH  035%=      5-min Rain = 0
KVP1 152000Z 25019KT 22/06 A2993 RMK A01 T02180057  RH  035%=      5-min Rain = 0
KVP1 152001Z 26019KT 22/06 A2992 RMK A01 T02220059  RH  035%=      5-min Rain = 0
KVP1 152002Z 26019KT 23/06 A2992 RMK A01 T02260059  RH  034%=      5-min Rain = 0
KVP1 152003Z 26020KT 23/06 A2992 RMK A01 T02290059  RH  033%=      5-min Rain = 0
KVP1 152004Z 25018KT 23/06 A2992 RMK A01 T02300059  RH  033%=      5-min Rain = 0
KVP1 152005Z 24019KT 23/06 A2992 RMK A01 T02290059  RH  033%=      5-min Rain = 0
KVP1 152006Z 25021KT 23/06 A2992 RMK A01 T02280059  RH  033%=      5-min Rain = 0
KVP1 152007Z 26018KT 23/06 A2992 RMK A01 T02270058  RH  034%=      5-min Rain = 0
KVP1 152008Z 25017KT 23/06 A2992 RMK A01 T02260058  RH  034%=      5-min Rain = 0
KVP1 152009Z 26020KT 23/06 A2992 RMK A01 T02250057  RH  034%=      5-min Rain = 0
KVP1 152010Z 26018KT 22/06 A2992 RMK A01 T02230058  RH  034%=      5-min Rain = 0
KVP1 152011Z 25024KT 22/06 A2992 RMK A01 T02230058  RH  034%=      5-min Rain = 0
KVP1 152012Z 24021G26KT 22/06 A2992 RMK A01 T02210058  RH  035%=      5-min Rain = 0
KVP1 152013Z 25019KT 22/06 A2992 RMK A01 T02210058  RH  035%=      5-min Rain = 0
KVP1 152014Z 25020KT 22/06 A2992 RMK A01 T02210058  RH  035%=      5-min Rain = 0
KVP1 152015Z 24021KT 22/06 A2992 RMK A01 T02210058  RH  035%=      5-min Rain = 0
KVP1 152016Z 25020KT 22/06 A2992 RMK A01 T02210058  RH  035%=      5-min Rain = 0
KVP1 152017Z 24016KT 22/06 A2992 RMK A01 T02230059  RH  035%=      5-min Rain = 0
KVP1 152018Z 26018G24KT 23/06 A2992 RMK A01 T02300061  RH  034%=      5-min Rain = 0
KVP1 152019Z 25018G23KT 23/06 A2991 RMK A01 T02340062  RH  033%=      5-min Rain = 0
KVP1 152020Z 25021G26KT 24/06 A2991 RMK A01 T02360061  RH  032%=      5-min Rain = 0
KVP1 152021Z 25021KT 24/06 A2991 RMK A01 T02360061  RH  032%=      5-min Rain = 0
KVP1 152022Z 25020KT 24/06 A2991 RMK A01 T02350060  RH  032%=      5-min Rain = 0
KVP1 152023Z 26019KT 23/06 A2991 RMK A01 T02340060  RH  033%=      5-min Rain = 0
KVP1 152024Z 25022KT 23/06 A2991 RMK A01 T02330060  RH  033%=      5-min Rain = 0
KVP1 152025Z 24021KT 23/06 A2991 RMK A01 T02290058  RH  033%=      5-min Rain = 0
KVP1 152026Z 25021G27KT 23/06 A2991 RMK A01 T02260059  RH  034%=      5-min Rain = 0
KVP1 152027Z 26023KT 23/06 A2991 RMK A01 T02250059  RH  034%=      5-min Rain = 0
KVP1 152028Z 25024KT 22/06 A2991 RMK A01 T02240059  RH  034%=      5-min Rain = 0
KVP1 152029Z 26020KT 22/06 A2991 RMK A01 T02220059  RH  035%=      5-min Rain = 0
KVP1 152030Z 25020G27KT 22/06 A2991 RMK A01 T02240060  RH  035%=      5-min Rain = 0
KVP1 152031Z 24020G25KT 23/06 A2991 RMK A01 T02300063  RH  034%=      5-min Rain = 0
KVP1 152032Z 24021KT 24/06 A2991 RMK A01 T02350063  RH  033%=      5-min Rain = 0
KVP1 152033Z 25019KT 23/06 A2991 RMK A01 T02330061  RH  033%=      5-min Rain = 0
KVP1 152034Z 25021G26KT 23/06 A2991 RMK A01 T02310061  RH  033%=      5-min Rain = 0
KVP1 152035Z 24021KT 23/06 A2991 RMK A01 T02280060  RH  034%=      5-min Rain = 0
KVP1 152036Z 25021KT 23/06 A2991 RMK A01 T02250060  RH  034%=      5-min Rain = 0
KVP1 152037Z 25019G24KT 22/06 A2991 RMK A01 T02240060  RH  034%=      5-min Rain = 0
KVP1 152038Z 25019KT 22/06 A2991 RMK A01 T02240060  RH  035%=      5-min Rain = 0
KVP1 152039Z 25020KT 22/06 A2991 RMK A01 T02240060  RH  035%=      5-min Rain = 0
KVP1 152040Z 25020KT 22/06 A2991 RMK A01 T02230060  RH  035%=      5-min Rain = 0
KVP1 152041Z 24017KT 22/06 A2991 RMK A01 T02240061  RH  035%=      5-min Rain = 0
KVP1 152042Z 26016KT 23/06 A2991 RMK A01 T02250061  RH  035%=      5-min Rain = 0
KVP1 152043Z 25016KT 23/06 A2991 RMK A01 T02260061  RH  034%=      5-min Rain = 0
KVP1 152044Z 25017G24KT 23/06 A2991 RMK A01 T02260062  RH  034%=      5-min Rain = 0
KVP1 152045Z 24020KT 23/06 A2991 RMK A01 T02280062  RH  034%=      5-min Rain = 0
KVP1 152046Z 24018KT 23/06 A2991 RMK A01 T02280062  RH  034%=      5-min Rain = 0
KVP1 152047Z 24018KT 23/06 A2991 RMK A01 T02280062  RH  034%=      5-min Rain = 0
KVP1 152048Z 25020KT 23/06 A2991 RMK A01 T02290062  RH  034%=      5-min Rain = 0
KVP1 152049Z 24023KT 23/06 A2991 RMK A01 T02300063  RH  034%=      5-min Rain = 0
KVP1 152050Z 24022KT 23/06 A2991 RMK A01 T02290062  RH  034%=      5-min Rain = 0
KVP1 152051Z 24020KT 23/06 A2991 RMK A01 T02270061  RH  034%=      5-min Rain = 0
KVP1 152052Z 24019KT 23/06 A2991 RMK A01 T02270062  RH  034%=      5-min Rain = 0
KVP1 152053Z 25020G26KT 23/06 A2991 RMK A01 T02290063  RH  034%=      5-min Rain = 0
KVP1 152054Z 25022KT 23/06 A2991 RMK A01 T02290062  RH  034%=      5-min Rain = 0
KVP1 152055Z 25018KT 23/06 A2991 RMK A01 T02270062  RH  034%=      5-min Rain = 0
KVP1 152056Z 25019KT 23/06 A299 RMK A01 T02270062  RH  034%=      5-min Rain = 0
KVP1 152057Z 25018G23KT 23/06 A299 RMK A01 T02280063  RH  034%=      5-min Rain = 0
KVP1 152058Z 25021KT 23/06 A299 RMK A01 T02300063  RH  034%=      5-min Rain = 0
KVP1 152059Z 24020G25KT 23/06 A299 RMK A01 T02330064  RH  034%=      5-min Rain = 0
KVP1 152100Z 26020KT 24/06 A299 RMK A01 T02350064  RH  033%=      5-min Rain = 0
KVP1 152101Z 26021KT 24/06 A2991 RMK A01 T02350064  RH  033%=      5-min Rain = 0
KVP1 152102Z 25019KT 24/06 A2991 RMK A01 T02350063  RH  033%=      5-min Rain = 0
KVP1 152103Z 26020KT 24/06 A2991 RMK A01 T02350064  RH  033%=      5-min Rain = 0
KVP1 152104Z 26021KT 23/06 A299 RMK A01 T02340063  RH  033%=      5-min Rain = 0
KVP1 152105Z 25024KT 24/06 A299 RMK A01 T02350064  RH  033%=      5-min Rain = 0
KVP1 152106Z 25020KT 23/06 A299 RMK A01 T02340063  RH  033%=      5-min Rain = 0
KVP1 152107Z 25019KT 23/06 A299 RMK A01 T02330063  RH  033%=      5-min Rain = 0
KVP1 152108Z 25020G25KT 23/06 A2991 RMK A01 T02320063  RH  034%=      5-min Rain = 0
KVP1 152109Z 25018KT 23/06 A2991 RMK A01 T02310063  RH  034%=      5-min Rain = 0
KVP1 152110Z 27019KT 23/06 A2991 RMK A01 T02320064  RH  034%=      5-min Rain = 0
KVP1 152111Z 27024KT 23/06 A299 RMK A01 T02310064  RH  034%=      5-min Rain = 0
KVP1 152112Z 26023KT 23/06 A299 RMK A01 T02300063  RH  034%=      5-min Rain = 0
KVP1 152113Z 25018KT 23/06 A299 RMK A01 T02280063  RH  034%=      5-min Rain = 0
KVP1 152114Z 27022KT 23/06 A299 RMK A01 T02290063  RH  034%=      5-min Rain = 0
KVP1 152115Z 27023KT 23/06 A299 RMK A01 T02310064  RH  034%=      5-min Rain = 0
KVP1 152116Z 27024KT 23/06 A299 RMK A01 T02330064  RH  034%=      5-min Rain = 0
KVP1 152117Z 26023KT 23/06 A299 RMK A01 T02340064  RH  033%=      5-min Rain = 0
KVP1 152118Z 26019KT 24/06 A2991 RMK A01 T02350064  RH  033%=      5-min Rain = 0
KVP1 152119Z 26023KT 24/07 A299 RMK A01 T02380065  RH  033%=      5-min Rain = 0
KVP1 152120Z 25022KT 24/07 A2991 RMK A01 T02410065  RH  032%=      5-min Rain = 0
KVP1 152121Z 25020KT 24/06 A2991 RMK A01 T02410064  RH  032%=      5-min Rain = 0
KVP1 152122Z 25020KT 24/06 A299 RMK A01 T02410064  RH  032%=      5-min Rain = 0
KVP1 152123Z 25019G25KT 24/07 A2991 RMK A01 T02410065  RH  032%=      5-min Rain = 0
KVP1 152124Z 26021KT 25/07 A2991 RMK A01 T02450065  RH  031%=      5-min Rain = 0
KVP1 152125Z 26021KT 24/06 A2991 RMK A01 T02440064  RH  031%=      5-min Rain = 0
KVP1 152126Z 26021KT 24/06 A2991 RMK A01 T02430064  RH  032%=      5-min Rain = 0
KVP1 152127Z 26024KT 24/06 A299 RMK A01 T02430064  RH  032%=      5-min Rain = 0
KVP1 152128Z 26023KT 24/06 A299 RMK A01 T02420063  RH  032%=      5-min Rain = 0
KVP1 152129Z 26024G29KT 24/06 A2991 RMK A01 T02400063  RH  032%=      5-min Rain = 0
KVP1 152130Z 25023G29KT 24/06 A299 RMK A01 T02390063  RH  032%=      5-min Rain = 0
KVP1 152131Z 25022KT 24/06 A2991 RMK A01 T02370063  RH  032%=      5-min Rain = 0
KVP1 152132Z 25022G29KT 24/06 A2991 RMK A01 T02360062  RH  033%=      5-min Rain = 0
KVP1 152133Z 26019KT 23/06 A2991 RMK A01 T02330062  RH  033%=      5-min Rain = 0
KVP1 152134Z 26020G28KT 23/06 A2991 RMK A01 T02310062  RH  034%=      5-min Rain = 0
KVP1 152135Z 26025KT 23/06 A299 RMK A01 T02310062  RH  034%=      5-min Rain = 0
KVP1 152136Z 25024KT 23/06 A2991 RMK A01 T02280061  RH  034%=      5-min Rain = 0
KVP1 152137Z 25023KT 23/06 A299 RMK A01 T02260061  RH  034%=      5-min Rain = 0
KVP1 152138Z 26020KT 23/06 A2991 RMK A01 T02260062  RH  035%=      5-min Rain = 0
KVP1 152139Z 26022KT 23/06 A2991 RMK A01 T02270062  RH  034%=      5-min Rain = 0
KVP1 152140Z 26026KT 23/06 A2991 RMK A01 T02280062  RH  034%=      5-min Rain = 0
KVP1 152141Z 26024KT 23/06 A2991 RMK A01 T02280062  RH  034%=      5-min Rain = 0
KVP1 152142Z 25023G28KT 23/06 A2991 RMK A01 T02270062  RH  034%=      5-min Rain = 0
KVP1 152143Z 25024G29KT 23/06 A2991 RMK A01 T02270063  RH  035%=      5-min Rain = 0
KVP1 152144Z 25021G26KT 23/06 A2991 RMK A01 T02260062  RH  035%=      5-min Rain = 0
KVP1 152145Z 25022KT 23/06 A2991 RMK A01 T02270062  RH  034%=      5-min Rain = 0
KVP1 152146Z 24020KT 23/06 A2991 RMK A01 T02280063  RH  034%=      5-min Rain = 0
KVP1 152147Z 25021KT 23/06 A2991 RMK A01 T02280062  RH  034%=      5-min Rain = 0
KVP1 152148Z 26022KT 23/06 A2991 RMK A01 T02290063  RH  034%=      5-min Rain = 0
KVP1 152149Z 26021G26KT 23/06 A2991 RMK A01 T02280062  RH  034%=      5-min Rain = 0
KVP1 152150Z 27021KT 23/06 A299 RMK A01 T02280063  RH  034%=      5-min Rain = 0
KVP1 152151Z 26023KT 23/06 A2991 RMK A01 T02320064  RH  034%=      5-min Rain = 0
KVP1 152152Z 26019KT 24/06 A2991 RMK A01 T02350064  RH  033%=      5-min Rain = 0
KVP1 152153Z 25019KT 24/07 A2991 RMK A01 T02390065  RH  033%=      5-min Rain = 0
KVP1 152154Z 26021G26KT 24/07 A299 RMK A01 T02420065  RH  032%=      5-min Rain = 0
KVP1 152155Z 27020KT 24/06 A299 RMK A01 T02430064  RH  032%=      5-min Rain = 0
KVP1 152156Z 26023KT 24/06 A2991 RMK A01 T02440064  RH  031%=      5-min Rain = 0
KVP1 152157Z 26023KT 24/06 A2991 RMK A01 T02430063  RH  031%=      5-min Rain = 0
KVP1 152158Z 26022KT 24/06 A2991 RMK A01 T02430064  RH  032%=      5-min Rain = 0
KVP1 152159Z 26022KT 24/06 A2991 RMK A01 T02420063  RH  032%=      5-min Rain = 0
KVP1 152200Z 26018G24KT 24/06 A2991 RMK A01 T02400063  RH  032%=      5-min Rain = 0
KVP1 152201Z 26020G27KT 24/06 A2991 RMK A01 T02400063  RH  032%=      5-min Rain = 0
KVP1 152202Z 26021KT 24/06 A2991 RMK A01 T02400063  RH  032%=      5-min Rain = 0
KVP1 152203Z 25018KT 24/06 A2991 RMK A01 T02380063  RH  032%=      5-min Rain = 0
KVP1 152204Z 25021G26KT 24/06 A2991 RMK A01 T02370063  RH  033%=      5-min Rain = 0
KVP1 152205Z 27020KT 24/06 A2991 RMK A01 T02380063  RH  032%=      5-min Rain = 0
KVP1 152206Z 26019KT 24/06 A2991 RMK A01 T02380064  RH  032%=      5-min Rain = 0
KVP1 152207Z 25018KT 24/06 A2991 RMK A01 T02390063  RH  032%=      5-min Rain = 0
KVP1 152208Z 25018KT 24/06 A2991 RMK A01 T02380063  RH  032%=      5-min Rain = 0
KVP1 152209Z 26022KT 24/06 A2991 RMK A01 T02360062  RH  033%=      5-min Rain = 0
KVP1 152210Z 26020G25KT 23/06 A2991 RMK A01 T02340062  RH  033%=      5-min Rain = 0
KVP1 152211Z 27018KT 23/06 A2991 RMK A01 T02320061  RH  033%=      5-min Rain = 0
KVP1 152212Z 26017G24KT 23/06 A2991 RMK A01 T02290061  RH  034%=      5-min Rain = 0
KVP1 152213Z 25020KT 23/06 A2991 RMK A01 T02280062  RH  034%=      5-min Rain = 0
KVP1 152214Z 24018KT 23/06 A2991 RMK A01 T02270061  RH  034%=      5-min Rain = 0
KVP1 152215Z 25017KT 23/06 A2991 RMK A01 T02270062  RH  034%=      5-min Rain = 0
KVP1 152216Z 25014G19KT 23/06 A2991 RMK A01 T02270062  RH  034%=      5-min Rain = 0
KVP1 152217Z 26017KT 23/06 A2991 RMK A01 T02270062  RH  034%=      5-min Rain = 0
KVP1 152218Z 26014KT 23/06 A2991 RMK A01 T02260061  RH  034%=      5-min Rain = 0
KVP1 152219Z 26018KT 23/06 A2991 RMK A01 T02250061  RH  034%=      5-min Rain = 0
KVP1 152220Z 26016KT 22/06 A2991 RMK A01 T02240060  RH  035%=      5-min Rain = 0
KVP1 152221Z 26017KT 22/06 A2991 RMK A01 T02240061  RH  035%=      5-min Rain = 0
KVP1 152222Z 26018G23KT 22/06 A2991 RMK A01 T02240060  RH  035%=      5-min Rain = 0
KVP1 152223Z 26019KT 22/06 A2991 RMK A01 T02240061  RH  035%=      5-min Rain = 0
KVP1 152224Z 26019KT 22/06 A2991 RMK A01 T02240060  RH  035%=      5-min Rain = 0
KVP1 152225Z 27018G23KT 23/06 A2991 RMK A01 T02260061  RH  034%=      5-min Rain = 0
KVP1 152226Z 26018KT 23/06 A2991 RMK A01 T02260061  RH  034%=      5-min Rain = 0
KVP1 152227Z 26018KT 23/06 A2991 RMK A01 T02260061  RH  034%=      5-min Rain = 0
KVP1 152228Z 27017KT 23/06 A2991 RMK A01 T02260061  RH  034%=      5-min Rain = 0
KVP1 152229Z 27018KT 23/06 A2991 RMK A01 T02250061  RH  034%=      5-min Rain = 0
KVP1 152230Z 27016KT 23/06 A2991 RMK A01 T02250061  RH  034%=      5-min Rain = 0
KVP1 152231Z 26018KT 23/06 A2991 RMK A01 T02250060  RH  034%=      5-min Rain = 0
KVP1 152232Z 26016KT 22/06 A2991 RMK A01 T02240060  RH  035%=      5-min Rain = 0
KVP1 152233Z 26018KT 22/06 A2991 RMK A01 T02230060  RH  035%=      5-min Rain = 0
KVP1 152234Z 27020KT 22/06 A2991 RMK A01 T02220060  RH  035%=      5-min Rain = 0
KVP1 152235Z 26020KT 22/06 A2991 RMK A01 T02210060  RH  035%=      5-min Rain = 0
KVP1 152236Z 26019KT 22/06 A2991 RMK A01 T02200059  RH  035%=      5-min Rain = 0
KVP1 152237Z 26019KT 22/06 A2991 RMK A01 T02220060  RH  035%=      5-min Rain = 0
KVP1 152238Z 26017KT 22/06 A2991 RMK A01 T02230060  RH  035%=      5-min Rain = 0
KVP1 152239Z 26018KT 22/06 A2991 RMK A01 T02240060  RH  035%=      5-min Rain = 0
KVP1 152240Z 26015KT 23/06 A2991 RMK A01 T02250060  RH  034%=      5-min Rain = 0
KVP1 152241Z 26018KT 23/06 A2991 RMK A01 T02260061  RH  034%=      5-min Rain = 0
KVP1 152242Z 25016KT 23/06 A2991 RMK A01 T02280061  RH  034%=      5-min Rain = 0
KVP1 152243Z 25017KT 23/06 A2991 RMK A01 T02270061  RH  034%=      5-min Rain = 0
KVP1 152244Z 25017G22KT 23/06 A2991 RMK A01 T02260061  RH  034%=      5-min Rain = 0
KVP1 152245Z 25019KT 22/06 A2991 RMK A01 T02230060  RH  035%=      5-min Rain = 0
KVP1 152246Z 24017KT 22/06 A2991 RMK A01 T02210060  RH  035%=      5-min Rain = 0
KVP1 152247Z 25019KT 22/06 A2991 RMK A01 T02190059  RH  036%=      5-min Rain = 0
KVP1 152248Z 25017KT 22/06 A2991 RMK A01 T02170060  RH  036%=      5-min Rain = 0
KVP1 152249Z 25016KT 22/06 A2991 RMK A01 T02170060  RH  036%=      5-min Rain = 0
KVP1 152250Z 25018KT 22/06 A2991 RMK A01 T02160060  RH  036%=      5-min Rain = 0
KVP1 152251Z 25015KT 22/06 A2991 RMK A01 T02160060  RH  036%=      5-min Rain = 0
KVP1 152252Z 26015KT 22/06 A2991 RMK A01 T02160060  RH  036%=      5-min Rain = 0
KVP1 152253Z 25016G21KT 22/06 A2991 RMK A01 T02160060  RH  036%=      5-min Rain = 0
KVP1 152254Z 25018KT 22/06 A2991 RMK A01 T02160060  RH  036%=      5-min Rain = 0
KVP1 152255Z 25018KT 22/06 A2991 RMK A01 T02170060  RH  036%=      5-min Rain = 0
KVP1 152256Z 25014KT 22/06 A2991 RMK A01 T02160061  RH  036%=      5-min Rain = 0
KVP1 152257Z 25016KT 22/06 A2991 RMK A01 T02160060  RH  036%=      5-min Rain = 0
KVP1 152258Z 26015G21KT 22/06 A2991 RMK A01 T02160060  RH  036%=      5-min Rain = 0
KVP1 152259Z 26020KT 22/06 A2991 RMK A01 T02150060  RH  036%=      5-min Rain = 0
KVP1 152300Z 26018KT 22/06 A2991 RMK A01 T02150060  RH  037%=      5-min Rain = 0
KVP1 152301Z 25017KT 22/06 A2991 RMK A01 T02150060  RH  037%=      5-min Rain = 0
KVP1 152302Z 25019KT 22/06 A2991 RMK A01 T02150061  RH  037%=      5-min Rain = 0
KVP1 152303Z 25019KT 22/06 A2991 RMK A01 T02150061  RH  037%=      5-min Rain = 0
KVP1 152304Z 25017KT 21/06 A2991 RMK A01 T02140060  RH  037%=      5-min Rain = 0
KVP1 152305Z 26016G22KT 21/06 A2991 RMK A01 T02140060  RH  037%=      5-min Rain = 0
KVP1 152306Z 25016KT 21/06 A2991 RMK A01 T02130060  RH  037%=      5-min Rain = 0
KVP1 152307Z 25019KT 21/06 A2991 RMK A01 T02130060  RH  037%=      5-min Rain = 0
KVP1 152308Z 25018KT 21/06 A2991 RMK A01 T02120060  RH  037%=      5-min Rain = 0
KVP1 152309Z 25017KT 21/06 A2991 RMK A01 T02120060  RH  037%=      5-min Rain = 0
KVP1 152310Z 25015KT 21/06 A2991 RMK A01 T02120060  RH  037%=      5-min Rain = 0
KVP1 152311Z 26019KT 21/06 A2991 RMK A01 T02120060  RH  037%=      5-min Rain = 0
KVP1 152312Z 25021KT 21/06 A2991 RMK A01 T02110060  RH  037%=      5-min Rain = 0
KVP1 152313Z 25019KT 21/06 A2991 RMK A01 T02110060  RH  037%=      5-min Rain = 0
KVP1 152314Z 25019KT 21/06 A2991 RMK A01 T02100060  RH  037%=      5-min Rain = 0
KVP1 152315Z 25018KT 21/06 A2991 RMK A01 T02100060  RH  037%=      5-min Rain = 0
KVP1 152316Z 25019KT 21/06 A2991 RMK A01 T02110060  RH  037%=      5-min Rain = 0
KVP1 152317Z 26019KT 21/06 A2991 RMK A01 T02110060  RH  037%=      5-min Rain = 0
KVP1 152318Z 26020KT 21/06 A2991 RMK A01 T02100059  RH  037%=      5-min Rain = 0
KVP1 152319Z 26019KT 21/06 A2991 RMK A01 T02100059  RH  037%=      5-min Rain = 0
KVP1 152320Z 26018KT 21/06 A2992 RMK A01 T02100060  RH  037%=      5-min Rain = 0
KVP1 152321Z 25017KT 21/06 A2992 RMK A01 T02100059  RH  037%=      5-min Rain = 0
KVP1 152322Z 25017KT 21/06 A2992 RMK A01 T02090059  RH  038%=      5-min Rain = 0
KVP1 152323Z 25018KT 21/06 A2992 RMK A01 T02090059  RH  038%=      5-min Rain = 0
KVP1 152324Z 24016KT 21/06 A2992 RMK A01 T02090059  RH  038%=      5-min Rain = 0
KVP1 152325Z 24016KT 21/06 A2991 RMK A01 T02080059  RH  038%=      5-min Rain = 0
KVP1 152326Z 25016G21KT 21/06 A2992 RMK A01 T02080059  RH  038%=      5-min Rain = 0
KVP1 152327Z 25017KT 21/06 A2992 RMK A01 T02080059  RH  038%=      5-min Rain = 0
KVP1 152328Z 24016KT 21/06 A2992 RMK A01 T02070059  RH  038%=      5-min Rain = 0
KVP1 152329Z 24016KT 21/06 A2992 RMK A01 T02070059  RH  038%=      5-min Rain = 0
KVP1 152330Z 24016KT 21/06 A2992 RMK A01 T02070059  RH  038%=      5-min Rain = 0
KVP1 152331Z 25019KT 21/06 A2991 RMK A01 T02060059  RH  038%=      5-min Rain = 0
KVP1 152332Z 25017KT 21/06 A2991 RMK A01 T02060059  RH  038%=      5-min Rain = 0
KVP1 152333Z 25018KT 21/06 A2992 RMK A01 T02060059  RH  038%=      5-min Rain = 0
KVP1 152334Z 25016KT 21/06 A2992 RMK A01 T02060059  RH  038%=      5-min Rain = 0
KVP1 152335Z 25017KT 21/06 A2992 RMK A01 T02050059  RH  039%=      5-min Rain = 0
KVP1 152336Z 25017KT 21/06 A2992 RMK A01 T02050059  RH  039%=      5-min Rain = 0
KVP1 152337Z 25016KT 20/06 A2992 RMK A01 T02040059  RH  039%=      5-min Rain = 0
KVP1 152338Z 25016KT 20/06 A2992 RMK A01 T02040059  RH  039%=      5-min Rain = 0
KVP1 152339Z 25014KT 20/06 A2992 RMK A01 T02040059  RH  039%=      5-min Rain = 0
KVP1 152340Z 25014KT 20/06 A2992 RMK A01 T02030059  RH  039%=      5-min Rain = 0
KVP1 152341Z 25015KT 20/06 A2993 RMK A01 T02030058  RH  039%=      5-min Rain = 0
KVP1 152342Z 25017KT 20/06 A2993 RMK A01 T02030059  RH  039%=      5-min Rain = 0
KVP1 152343Z 25015KT 20/06 A2993 RMK A01 T02030059  RH  039%=      5-min Rain = 0
KVP1 152344Z 25017KT 20/06 A2993 RMK A01 T02020059  RH  039%=      5-min Rain = 0
KVP1 152345Z 25017KT 20/06 A2993 RMK A01 T02020059  RH  039%=      5-min Rain = 0
KVP1 152346Z 25016KT 20/06 A2993 RMK A01 T02020059  RH  039%=      5-min Rain = 0
KVP1 152347Z 25016KT 20/06 A2993 RMK A01 T02020059  RH  039%=      5-min Rain = 0
KVP1 152348Z 25016KT 20/06 A2993 RMK A01 T02010059  RH  039%=      5-min Rain = 0
KVP1 152349Z 25015KT 20/06 A2992 RMK A01 T02010059  RH  039%=      5-min Rain = 0
KVP1 152350Z 25016KT 20/06 A2992 RMK A01 T02010059  RH  039%=      5-min Rain = 0
KVP1 152351Z 25016KT 20/06 A2993 RMK A01 T02000059  RH  040%=      5-min Rain = 0
KVP1 152352Z 25015KT 20/06 A2993 RMK A01 T02000058  RH  040%=      5-min Rain = 0
KVP1 152353Z 25016KT 20/06 A2993 RMK A01 T01990058  RH  040%=      5-min Rain = 0
KVP1 152354Z 25014KT 20/06 A2993 RMK A01 T01990058  RH  040%=      5-min Rain = 0
KVP1 152355Z 25016KT 20/06 A2993 RMK A01 T01990058  RH  040%=      5-min Rain = 0
KVP1 152356Z 25015KT 20/06 A2993 RMK A01 T01990059  RH  040%=      5-min Rain = 0
KVP1 152357Z 25014KT 20/06 A2993 RMK A01 T01990058  RH  040%=      5-min Rain = 0
KVP1 152358Z 25013KT 20/06 A2993 RMK A01 T01980058  RH  040%=      5-min Rain = 0
KVP1 152359Z 25016KT 20/06 A2993 RMK A01 T01980058  RH  040%=      5-min Rain = 0
KVP1 160000Z 25017KT 20/06 A2993 RMK A01 T01980059  RH  040%=      5-min Rain = 0
KVP1 160001Z 25016KT 20/06 A2993 RMK A01 T01980058  RH  040%=      5-min Rain = 0
KVP1 160002Z 25014KT 20/06 A2993 RMK A01 T01980058  RH  040%=      5-min Rain = 0
KVP1 160003Z 25015KT 20/06 A2993 RMK A01 T01970058  RH  040%=      5-min Rain = 0
KVP1 160004Z 25017KT 20/06 A2993 RMK A01 T01970057  RH  040%=      5-min Rain = 0
KVP1 160005Z 25018KT 20/06 A2993 RMK A01 T01970058  RH  040%=      5-min Rain = 0
KVP1 160006Z 25015KT 20/06 A2993 RMK A01 T01970057  RH  040%=      5-min Rain = 0
KVP1 160007Z 25014KT 20/06 A2993 RMK A01 T01960057  RH  040%=      5-min Rain = 0
KVP1 160008Z 25014KT 20/06 A2993 RMK A01 T01950057  RH  040%=      5-min Rain = 0
KVP1 160009Z 25014KT 19/06 A2993 RMK A01 T01940057  RH  040%=      5-min Rain = 0
KVP1 160010Z 25014KT 19/06 A2993 RMK A01 T01940057  RH  041%=      5-min Rain = 0
KVP1 160011Z 25014KT 19/06 A2993 RMK A01 T01930057  RH  041%=      5-min Rain = 0
KVP1 160012Z 25013KT 19/06 A2993 RMK A01 T01930057  RH  041%=      5-min Rain = 0
KVP1 160013Z 25013KT 19/06 A2993 RMK A01 T01920057  RH  041%=      5-min Rain = 0
KVP1 160014Z 25014KT 19/06 A2993 RMK A01 T01920057  RH  041%=      5-min Rain = 0
KVP1 160015Z 25012KT 19/06 A2993 RMK A01 T01920057  RH  041%=      5-min Rain = 0
KVP1 160016Z 25013KT 19/06 A2993 RMK A01 T01910056  RH  041%=      5-min Rain = 0
KVP1 160017Z 25012KT 19/06 A2993 RMK A01 T01900056  RH  041%=      5-min Rain = 0
KVP1 160018Z 25012KT 19/06 A2994 RMK A01 T01890056  RH  042%=      5-min Rain = 0
KVP1 160019Z 25013KT 19/06 A2993 RMK A01 T01890056  RH  042%=      5-min Rain = 0
KVP1 160020Z 25012KT 19/06 A2993 RMK A01 T01880056  RH  042%=      5-min Rain = 0
KVP1 160021Z 25012KT 19/06 A2993 RMK A01 T01880056  RH  042%=      5-min Rain = 0
KVP1 160022Z 25012KT 19/06 A2993 RMK A01 T01880056  RH  042%=      5-min Rain = 0
KVP1 160023Z 25012KT 19/06 A2993 RMK A01 T01870056  RH  042%=      5-min Rain = 0
KVP1 160024Z 25012KT 19/06 A2994 RMK A01 T01870056  RH  042%=      5-min Rain = 0
KVP1 160025Z 25011KT 19/06 A2994 RMK A01 T01860055  RH  042%=      5-min Rain = 0
KVP1 160026Z 25012KT 19/06 A2994 RMK A01 T01860056  RH  042%=      5-min Rain = 0
KVP1 160027Z 25012KT 19/06 A2994 RMK A01 T01850055  RH  042%=      5-min Rain = 0
KVP1 160028Z 25012KT 19/06 A2994 RMK A01 T01850055  RH  043%=      5-min Rain = 0
KVP1 160029Z 25012KT 18/06 A2994 RMK A01 T01840055  RH  043%=      5-min Rain = 0
KVP1 160030Z 24012KT 18/06 A2994 RMK A01 T01830055  RH  043%=      5-min Rain = 0
KVP1 160031Z 25012KT 18/06 A2994 RMK A01 T01830055  RH  043%=      5-min Rain = 0
KVP1 160032Z 24012KT 18/06 A2994 RMK A01 T01830055  RH  043%=      5-min Rain = 0
KVP1 160033Z 25012KT 18/06 A2994 RMK A01 T01820055  RH  043%=      5-min Rain = 0
KVP1 160034Z 25012KT 18/06 A2994 RMK A01 T01820055  RH  043%=      5-min Rain = 0
KVP1 160035Z 25012KT 18/06 A2994 RMK A01 T01820055  RH  043%=      5-min Rain = 0
KVP1 160036Z 25014KT 18/06 A2994 RMK A01 T01820055  RH  043%=      5-min Rain = 0
KVP1 160037Z 25013KT 18/06 A2994 RMK A01 T01810055  RH  043%=      5-min Rain = 0
KVP1 160038Z 25014KT 18/06 A2994 RMK A01 T01820055  RH  043%=      5-min Rain = 0
KVP1 160039Z 25015KT 18/06 A2994 RMK A01 T01820055  RH  043%=      5-min Rain = 0
KVP1 160040Z 25013KT 18/06 A2994 RMK A01 T01820055  RH  043%=      5-min Rain = 0
KVP1 160041Z 24014KT 18/06 A2994 RMK A01 T01820055  RH  043%=      5-min Rain = 0
KVP1 160042Z 25013KT 18/06 A2994 RMK A01 T01820055  RH  043%=      5-min Rain = 0
KVP1 160043Z 24013KT 18/06 A2994 RMK A01 T01810055  RH  043%=      5-min Rain = 0
KVP1 160044Z 24014KT 18/06 A2994 RMK A01 T01810055  RH  043%=      5-min Rain = 0
KVP1 160045Z 24013KT 18/06 A2994 RMK A01 T01810055  RH  043%=      5-min Rain = 0
KVP1 160046Z 24014KT 18/06 A2994 RMK A01 T01810055  RH  043%=      5-min Rain = 0
KVP1 160047Z 24014KT 18/06 A2994 RMK A01 T01810055  RH  043%=      5-min Rain = 0
KVP1 160048Z 24012KT 18/06 A2994 RMK A01 T01810055  RH  044%=      5-min Rain = 0
KVP1 160049Z 24013KT 18/06 A2994 RMK A01 T01800055  RH  044%=      5-min Rain = 0
KVP1 160050Z 24013KT 18/06 A2994 RMK A01 T01800055  RH  044%=      5-min Rain = 0
KVP1 160051Z 24013KT 18/06 A2994 RMK A01 T01800055  RH  044%=      5-min Rain = 0
KVP1 160052Z 24013KT 18/06 A2994 RMK A01 T01800055  RH  044%=      5-min Rain = 0
KVP1 160053Z 24012KT 18/06 A2994 RMK A01 T01800055  RH  044%=      5-min Rain = 0
KVP1 160054Z 24012KT 18/06 A2994 RMK A01 T01790055  RH  044%=      5-min Rain = 0
KVP1 160055Z 24012KT 18/06 A2994 RMK A01 T01790055  RH  044%=      5-min Rain = 0
KVP1 160056Z 24012KT 18/05 A2994 RMK A01 T01780054  RH  044%=      5-min Rain = 0
KVP1 160057Z 24011KT 18/05 A2994 RMK A01 T01770054  RH  044%=      5-min Rain = 0
KVP1 160058Z 24010KT 18/05 A2994 RMK A01 T01760054  RH  045%=      5-min Rain = 0
KVP1 160059Z 24011KT 18/05 A2994 RMK A01 T01750054  RH  045%=      5-min Rain = 0
KVP1 160100Z 24011KT 17/05 A2994 RMK A01 T01740054  RH  045%=      5-min Rain = 0
KVP1 160101Z 24011KT 17/05 A2994 RMK A01 T01740054  RH  045%=      5-min Rain = 0
KVP1 160102Z 24010KT 17/05 A2994 RMK A01 T01740054  RH  045%=      5-min Rain = 0
KVP1 160103Z 24012KT 17/05 A2995 RMK A01 T01730053  RH  045%=      5-min Rain = 0
KVP1 160104Z 24011KT 17/05 A2995 RMK A01 T01730053  RH  045%=      5-min Rain = 0
KVP1 160105Z 24011KT 17/05 A2995 RMK A01 T01720053  RH  045%=      5-min Rain = 0
KVP1 160106Z 25012KT 17/05 A2995 RMK A01 T01720053  RH  045%=      5-min Rain = 0
KVP1 160107Z 25011KT 17/05 A2995 RMK A01 T01720053  RH  046%=      5-min Rain = 0
KVP1 160108Z 25011KT 17/05 A2995 RMK A01 T01710053  RH  046%=      5-min Rain = 0
KVP1 160109Z 25010KT 17/05 A2995 RMK A01 T01710053  RH  046%=      5-min Rain = 0
KVP1 160110Z 25010KT 17/05 A2995 RMK A01 T01710053  RH  046%=      5-min Rain = 0
KVP1 160111Z 25010KT 17/05 A2995 RMK A01 T01700053  RH  046%=      5-min Rain = 0
KVP1 160112Z 25010KT 17/05 A2996 RMK A01 T01690052  RH  046%=      5-min Rain = 0
KVP1 160113Z 25010KT 17/05 A2996 RMK A01 T01680052  RH  046%=      5-min Rain = 0
KVP1 160114Z 25009KT 17/05 A2996 RMK A01 T01680052  RH  046%=      5-min Rain = 0
KVP1 160115Z 25009KT 17/05 A2995 RMK A01 T01670052  RH  046%=      5-min Rain = 0
KVP1 160116Z 25009KT 17/05 A2995 RMK A01 T01670051  RH  046%=      5-min Rain = 0
KVP1 160117Z 25008KT 17/05 A2995 RMK A01 T01660051  RH  047%=      5-min Rain = 0
KVP1 160118Z 25009KT 17/05 A2995 RMK A01 T01650051  RH  047%=      5-min Rain = 0
KVP1 160119Z 25009KT 16/05 A2995 RMK A01 T01640051  RH  047%=      5-min Rain = 0
KVP1 160120Z 25009KT 16/05 A2996 RMK A01 T01630051  RH  047%=      5-min Rain = 0
KVP1 160121Z 25009KT 16/05 A2996 RMK A01 T01630051  RH  047%=      5-min Rain = 0
KVP1 160122Z 24009KT 16/05 A2996 RMK A01 T01620051  RH  047%=      5-min Rain = 0
KVP1 160123Z 25010KT 16/05 A2996 RMK A01 T01620051  RH  048%=      5-min Rain = 0
KVP1 160124Z 25010KT 16/05 A2996 RMK A01 T01620051  RH  048%=      5-min Rain = 0
KVP1 160125Z 25010KT 16/05 A2996 RMK A01 T01620051  RH  048%=      5-min Rain = 0
KVP1 160126Z 25009KT 16/05 A2996 RMK A01 T01620051  RH  048%=      5-min Rain = 0
KVP1 160127Z 25009KT 16/05 A2996 RMK A01 T01620051  RH  048%=      5-min Rain = 0
KVP1 160128Z 25010KT 16/05 A2996 RMK A01 T01610051  RH  048%=      5-min Rain = 0
KVP1 160129Z 25010KT 16/05 A2996 RMK A01 T01610051  RH  048%=      5-min Rain = 0
KVP1 160130Z 25010KT 16/05 A2996 RMK A01 T01610051  RH  048%=      5-min Rain = 0
KVP1 160131Z 26010KT 16/05 A2996 RMK A01 T01620052  RH  048%=      5-min Rain = 0
KVP1 160132Z 26011KT 16/05 A2996 RMK A01 T01620052  RH  048%=      5-min Rain = 0
KVP1 160133Z 26011KT 16/05 A2996 RMK A01 T01620052  RH  048%=      5-min Rain = 0
KVP1 160134Z 26009KT 16/05 A2996 RMK A01 T01630053  RH  048%=      5-min Rain = 0
KVP1 160135Z 26011KT 16/05 A2996 RMK A01 T01620053  RH  048%=      5-min Rain = 0
KVP1 160136Z 26010KT 16/05 A2996 RMK A01 T01620053  RH  048%=      5-min Rain = 0
KVP1 160137Z 26009KT 16/05 A2996 RMK A01 T01620053  RH  049%=      5-min Rain = 0
KVP1 160138Z 26011KT 16/05 A2996 RMK A01 T01620053  RH  049%=      5-min Rain = 0
KVP1 160139Z 26011KT 16/05 A2996 RMK A01 T01620054  RH  049%=      5-min Rain = 0
KVP1 160140Z 26011KT 16/05 A2996 RMK A01 T01620054  RH  049%=      5-min Rain = 0
KVP1 160141Z 26011KT 16/05 A2996 RMK A01 T01620054  RH  049%=      5-min Rain = 0
KVP1 160142Z 26010KT 16/06 A2996 RMK A01 T01620055  RH  049%=      5-min Rain = 0
KVP1 160143Z 25012KT 16/06 A2996 RMK A01 T01620055  RH  049%=      5-min Rain = 0
KVP1 160144Z 26012KT 16/06 A2996 RMK A01 T01620055  RH  049%=      5-min Rain = 0
KVP1 160145Z 26012KT 16/06 A2996 RMK A01 T01620055  RH  049%=      5-min Rain = 0
KVP1 160146Z 26012G17KT 16/06 A2996 RMK A01 T01620055  RH  049%=      5-min Rain = 0
KVP1 160147Z 26012KT 16/06 A2996 RMK A01 T01620056  RH  049%=      5-min Rain = 0
KVP1 160148Z 25013KT 16/06 A2996 RMK A01 T01620056  RH  049%=      5-min Rain = 0
KVP1 160149Z 26013KT 16/06 A2996 RMK A01 T01620056  RH  049%=      5-min Rain = 0
KVP1 160150Z 26013KT 16/06 A2997 RMK A01 T01630056  RH  049%=      5-min Rain = 0
KVP1 160151Z 26013KT 16/06 A2997 RMK A01 T01630056  RH  049%=      5-min Rain = 0
KVP1 160152Z 26013KT 16/06 A2997 RMK A01 T01620056  RH  049%=      5-min Rain = 0
KVP1 160153Z 26014KT 16/06 A2997 RMK A01 T01620057  RH  050%=      5-min Rain = 0
KVP1 160154Z 26013KT 16/06 A2997 RMK A01 T01620057  RH  050%=      5-min Rain = 0
KVP1 160155Z 26015KT 16/06 A2997 RMK A01 T01630057  RH  050%=      5-min Rain = 0
KVP1 160156Z 26015KT 16/06 A2997 RMK A01 T01630057  RH  050%=      5-min Rain = 0
KVP1 160157Z 26014KT 16/06 A2997 RMK A01 T01630057  RH  050%=      5-min Rain = 0
KVP1 160158Z 26015KT 16/06 A2997 RMK A01 T01630058  RH  050%=      5-min Rain = 0
KVP1 160159Z 26016KT 16/06 A2997 RMK A01 T01630058  RH  050%=      5-min Rain = 0
KVP1 160200Z 26014KT 16/06 A2997 RMK A01 T01620058  RH  050%=      5-min Rain = 0
KVP1 160201Z 26014KT 16/06 A2997 RMK A01 T01620057  RH  050%=      5-min Rain = 0
KVP1 160202Z 26015KT 16/06 A2997 RMK A01 T01620058  RH  050%=      5-min Rain = 0
KVP1 160203Z 26014KT 16/06 A2998 RMK A01 T01620058  RH  050%=      5-min Rain = 0
KVP1 160204Z 26015KT 16/06 A2998 RMK A01 T01620058  RH  050%=      5-min Rain = 0
KVP1 160205Z 26015KT 16/06 A2998 RMK A01 T01610058  RH  050%=      5-min Rain = 0
KVP1 160206Z 26015KT 16/06 A2998 RMK A01 T01610058  RH  050%=      5-min Rain = 0
KVP1 160207Z 26015KT 16/06 A2998 RMK A01 T01610059  RH  051%=      5-min Rain = 0
KVP1 160208Z 26015KT 16/06 A2998 RMK A01 T01610059  RH  051%=      5-min Rain = 0
KVP1 160209Z 26015KT 16/06 A2998 RMK A01 T01600059  RH  051%=      5-min Rain = 0
KVP1 160210Z 26015KT 16/06 A2998 RMK A01 T01600059  RH  051%=      5-min Rain = 0
KVP1 160211Z 26015KT 16/06 A2998 RMK A01 T01610060  RH  051%=      5-min Rain = 0
KVP1 160212Z 26014KT 16/06 A2998 RMK A01 T01610060  RH  051%=      5-min Rain = 0
KVP1 160213Z 26014KT 16/06 A2998 RMK A01 T01610060  RH  051%=      5-min Rain = 0
KVP1 160214Z 26014KT 16/06 A2998 RMK A01 T01600060  RH  051%=      5-min Rain = 0
KVP1 160215Z 26015KT 16/06 A2998 RMK A01 T01600060  RH  051%=      5-min Rain = 0
KVP1 160216Z 26013KT 16/06 A2998 RMK A01 T01600060  RH  051%=      5-min Rain = 0
KVP1 160217Z 26013KT 16/06 A2998 RMK A01 T01600060  RH  052%=      5-min Rain = 0
KVP1 160218Z 26013KT 16/06 A2998 RMK A01 T01590060  RH  052%=      5-min Rain = 0
KVP1 160219Z 26013KT 16/06 A2998 RMK A01 T01580060  RH  052%=      5-min Rain = 0
KVP1 160220Z 26012KT 16/06 A2998 RMK A01 T01580060  RH  052%=      5-min Rain = 0
KVP1 160221Z 25013KT 16/06 A2998 RMK A01 T01580060  RH  052%=      5-min Rain = 0
KVP1 160222Z 25014KT 16/06 A2998 RMK A01 T01570060  RH  052%=      5-min Rain = 0
KVP1 160223Z 25013KT 16/06 A2998 RMK A01 T01570060  RH  052%=      5-min Rain = 0
KVP1 160224Z 25013KT 16/06 A2998 RMK A01 T01570060  RH  052%=      5-min Rain = 0
KVP1 160225Z 25014KT 16/06 A2998 RMK A01 T01570060  RH  052%=      5-min Rain = 0
KVP1 160226Z 26014KT 16/06 A2998 RMK A01 T01570060  RH  052%=      5-min Rain = 0
KVP1 160227Z 26014KT 16/06 A2998 RMK A01 T01580061  RH  052%=      5-min Rain = 0
KVP1 160228Z 26014KT 16/06 A2998 RMK A01 T01580060  RH  052%=      5-min Rain = 0
KVP1 160229Z 25013KT 16/06 A2998 RMK A01 T01580060  RH  052%=      5-min Rain = 0
KVP1 160230Z 25013KT 16/06 A2998 RMK A01 T01580059  RH  052%=      5-min Rain = 0
KVP1 160231Z 26013KT 16/06 A2998 RMK A01 T01560059  RH  052%=      5-min Rain = 0
KVP1 160232Z 26012KT 16/06 A2998 RMK A01 T01560059  RH  053%=      5-min Rain = 0
KVP1 160233Z 26011KT 16/06 A2998 RMK A01 T01550059  RH  053%=      5-min Rain = 0
KVP1 160234Z 26013KT 16/06 A2999 RMK A01 T01550059  RH  053%=      5-min Rain = 0
KVP1 160235Z 26012KT 16/06 A2999 RMK A01 T01550059  RH  053%=      5-min Rain = 0
KVP1 160236Z 26012KT 15/06 A2999 RMK A01 T01540059  RH  053%=      5-min Rain = 0
KVP1 160237Z 25011KT 15/06 A2999 RMK A01 T01530059  RH  053%=      5-min Rain = 0
KVP1 160238Z 26012KT 15/06 A2999 RMK A01 T01530059  RH  053%=      5-min Rain = 0
KVP1 160239Z 26012KT 15/06 A2999 RMK A01 T01530059  RH  054%=      5-min Rain = 0
KVP1 160240Z 26013KT 15/06 A2999 RMK A01 T01530060  RH  054%=      5-min Rain = 0
KVP1 160241Z 25011KT 15/06 A2999 RMK A01 T01530059  RH  054%=      5-min Rain = 0
KVP1 160242Z 25011KT 15/06 A2999 RMK A01 T01520059  RH  054%=      5-min Rain = 0
KVP1 160243Z 25012KT 15/06 A2999 RMK A01 T01510059  RH  054%=      5-min Rain = 0
KVP1 160244Z 26012KT 15/06 A2999 RMK A01 T01510059  RH  054%=      5-min Rain = 0
KVP1 160245Z 25011KT 15/06 A2999 RMK A01 T01500059  RH  054%=      5-min Rain = 0
KVP1 160246Z 26011KT 15/06 A2999 RMK A01 T01500059  RH  054%=      5-min Rain = 0
KVP1 160247Z 25011KT 15/06 A2999 RMK A01 T01490058  RH  054%=      5-min Rain = 0
KVP1 160248Z 26011KT 15/06 A30 RMK A01 T01490059  RH  055%=      5-min Rain = 0
KVP1 160249Z 26011KT 15/06 A30 RMK A01 T01490059  RH  055%=      5-min Rain = 0
KVP1 160250Z 26011KT 15/06 A30 RMK A01 T01490058  RH  054%=      5-min Rain = 0
KVP1 160251Z 26011KT 15/06 A30 RMK A01 T01490058  RH  054%=      5-min Rain = 0
KVP1 160252Z 26011KT 15/06 A30 RMK A01 T01480057  RH  055%=      5-min Rain = 0
KVP1 160253Z 26012KT 15/06 A30 RMK A01 T01470058  RH  055%=      5-min Rain = 0
KVP1 160254Z 26012KT 15/06 A30 RMK A01 T01470058  RH  055%=      5-min Rain = 0
KVP1 160255Z 26011KT 15/06 A30 RMK A01 T01470058  RH  055%=      5-min Rain = 0
KVP1 160256Z 26011KT 15/06 A30 RMK A01 T01470057  RH  055%=      5-min Rain = 0
KVP1 160257Z 26011KT 15/06 A30 RMK A01 T01470057  RH  055%=      5-min Rain = 0
KVP1 160258Z 26010KT 15/06 A3001 RMK A01 T01470057  RH  055%=      5-min Rain = 0
KVP1 160259Z 26012KT 15/06 A3001 RMK A01 T01460057  RH  055%=      5-min Rain = 0
KVP1 160300Z 26011KT 15/06 A3001 RMK A01 T01460058  RH  055%=      5-min Rain = 0
KVP1 160301Z 26012KT 15/06 A3001 RMK A01 T01460057  RH  055%=      5-min Rain = 0
KVP1 160302Z 26011KT 15/06 A3001 RMK A01 T01460057  RH  055%=      5-min Rain = 0
KVP1 160303Z 26012KT 15/06 A3001 RMK A01 T01460057  RH  055%=      5-min Rain = 0
KVP1 160304Z 26011KT 15/06 A3001 RMK A01 T01460057  RH  055%=      5-min Rain = 0
KVP1 160305Z 26012KT 15/06 A3001 RMK A01 T01460057  RH  055%=      5-min Rain = 0
KVP1 160306Z 26012KT 15/06 A3001 RMK A01 T01450057  RH  055%=      5-min Rain = 0
KVP1 160307Z 27012KT 15/06 A3001 RMK A01 T01450057  RH  056%=      5-min Rain = 0
KVP1 160308Z 27012KT 15/06 A3001 RMK A01 T01450057  RH  056%=      5-min Rain = 0
KVP1 160309Z 27013KT 15/06 A3001 RMK A01 T01450057  RH  056%=      5-min Rain = 0
KVP1 160310Z 26012KT 15/06 A3001 RMK A01 T01460057  RH  055%=      5-min Rain = 0
KVP1 160311Z 27014KT 15/06 A3001 RMK A01 T01460057  RH  055%=      5-min Rain = 0
KVP1 160312Z 27013KT 15/06 A3001 RMK A01 T01470056  RH  055%=      5-min Rain = 0
KVP1 160313Z 27012KT 15/06 A3001 RMK A01 T01470056  RH  055%=      5-min Rain = 0
KVP1 160314Z 27012KT 15/06 A3001 RMK A01 T01470056  RH  055%=      5-min Rain = 0
KVP1 160315Z 27013KT 15/06 A3001 RMK A01 T01460056  RH  055%=      5-min Rain = 0
KVP1 160316Z 27012KT 15/06 A3001 RMK A01 T01460056  RH  055%=      5-min Rain = 0
KVP1 160317Z 27013KT 15/06 A3001 RMK A01 T01460055  RH  054%=      5-min Rain = 0
KVP1 160318Z 27013KT 15/06 A3001 RMK A01 T01460055  RH  054%=      5-min Rain = 0
KVP1 160319Z 27012KT 15/06 A3002 RMK A01 T01460055  RH  054%=      5-min Rain = 0
KVP1 160320Z 26012KT 15/06 A3002 RMK A01 T01460055  RH  054%=      5-min Rain = 0
KVP1 160321Z 27012KT 15/06 A3002 RMK A01 T01450055  RH  055%=      5-min Rain = 0
KVP1 160322Z 26012KT 14/05 A3002 RMK A01 T01440054  RH  055%=      5-min Rain = 0
KVP1 160323Z 26012KT 14/05 A3002 RMK A01 T01440054  RH  055%=      5-min Rain = 0
KVP1 160324Z 26012KT 14/05 A3002 RMK A01 T01430054  RH  055%=      5-min Rain = 0
KVP1 160325Z 26011KT 14/05 A3002 RMK A01 T01430054  RH  055%=      5-min Rain = 0
KVP1 160326Z 26012KT 14/05 A3002 RMK A01 T01410054  RH  055%=      5-min Rain = 0
KVP1 160327Z 26012KT 14/05 A3002 RMK A01 T01410054  RH  056%=      5-min Rain = 0
KVP1 160328Z 26011KT 14/05 A3002 RMK A01 T01410053  RH  056%=      5-min Rain = 0
KVP1 160329Z 26012KT 14/05 A3002 RMK A01 T01400053  RH  056%=      5-min Rain = 0
KVP1 160330Z 26012KT 14/05 A3002 RMK A01 T01390053  RH  056%=      5-min Rain = 0
KVP1 160331Z 25013KT 14/05 A3002 RMK A01 T01390053  RH  056%=      5-min Rain = 0
KVP1 160332Z 25013KT 14/05 A3002 RMK A01 T01380052  RH  056%=      5-min Rain = 0
KVP1 160333Z 25015KT 14/05 A3002 RMK A01 T01390053  RH  056%=      5-min Rain = 0
KVP1 160334Z 25013KT 14/05 A3002 RMK A01 T01400052  RH  056%=      5-min Rain = 0
KVP1 160335Z 26014KT 14/05 A3002 RMK A01 T01390052  RH  056%=      5-min Rain = 0
KVP1 160336Z 25015KT 14/05 A3002 RMK A01 T01400052  RH  055%=      5-min Rain = 0
KVP1 160337Z 25013KT 14/05 A3002 RMK A01 T01400052  RH  055%=      5-min Rain = 0
KVP1 160338Z 25014KT 14/05 A3002 RMK A01 T01400051  RH  055%=      5-min Rain = 0
KVP1 160339Z 25015KT 14/05 A3002 RMK A01 T01410051  RH  055%=      5-min Rain = 0
KVP1 160340Z 25015KT 14/05 A3002 RMK A01 T01410051  RH  055%=      5-min Rain = 0
KVP1 160341Z 25016KT 14/05 A3002 RMK A01 T01410051  RH  055%=      5-min Rain = 0
KVP1 160342Z 25016KT 14/05 A3002 RMK A01 T01410051  RH  055%=      5-min Rain = 0
KVP1 160343Z 25015KT 14/05 A3003 RMK A01 T01420051  RH  054%=      5-min Rain = 0
KVP1 160344Z 25016KT 14/05 A3003 RMK A01 T01420051  RH  054%=      5-min Rain = 0
KVP1 160345Z 25016KT 14/05 A3003 RMK A01 T01420050  RH  054%=      5-min Rain = 0
KVP1 160346Z 26017KT 14/05 A3003 RMK A01 T01420050  RH  054%=      5-min Rain = 0
KVP1 160347Z 26016KT 14/05 A3003 RMK A01 T01430050  RH  054%=      5-min Rain = 0
KVP1 160348Z 26015KT 14/05 A3003 RMK A01 T01430050  RH  054%=      5-min Rain = 0
KVP1 160349Z 26014KT 14/05 A3003 RMK A01 T01420050  RH  054%=      5-min Rain = 0
KVP1 160350Z 26015KT 14/05 A3003 RMK A01 T01410050  RH  054%=      5-min Rain = 0
KVP1 160351Z 26017KT 14/05 A3003 RMK A01 T01410050  RH  054%=      5-min Rain = 0
KVP1 160352Z 26015KT 14/05 A3003 RMK A01 T01420050  RH  054%=      5-min Rain = 0
KVP1 160353Z 26015KT 14/05 A3003 RMK A01 T01430050  RH  054%=      5-min Rain = 0
KVP1 160354Z 26015KT 14/05 A3003 RMK A01 T01420049  RH  054%=      5-min Rain = 0
KVP1 160355Z 26015KT 14/05 A3003 RMK A01 T01420049  RH  054%=      5-min Rain = 0
KVP1 160356Z 26016KT 14/05 A3003 RMK A01 T01420049  RH  054%=      5-min Rain = 0
KVP1 160357Z 26016KT 14/05 A3003 RMK A01 T01410049  RH  054%=      5-min Rain = 0
KVP1 160358Z 26015KT 14/05 A3003 RMK A01 T01410049  RH  054%=      5-min Rain = 0
KVP1 160359Z 26015KT 14/05 A3003 RMK A01 T01410049  RH  054%=      5-min Rain = 0
KVP1 160400Z 26015KT 14/05 A3003 RMK A01 T01410049  RH  054%=      5-min Rain = 0
KVP1 160401Z 26014KT 14/05 A3003 RMK A01 T01410049  RH  054%=      5-min Rain = 0
KVP1 160402Z 26016KT 14/05 A3003 RMK A01 T01410049  RH  054%=      5-min Rain = 0
KVP1 160403Z 26016KT 14/05 A3002 RMK A01 T01420049  RH  054%=      5-min Rain = 0
KVP1 160404Z 26015KT 14/05 A3003 RMK A01 T01430049  RH  053%=      5-min Rain = 0
KVP1 160405Z 26014G19KT 14/05 A3003 RMK A01 T01430049  RH  053%=      5-min Rain = 0
KVP1 160406Z 26017KT 14/05 A3003 RMK A01 T01430049  RH  053%=      5-min Rain = 0
KVP1 160407Z 27016KT 15/05 A3003 RMK A01 T01450049  RH  053%=      5-min Rain = 0
KVP1 160408Z 26016KT 15/05 A3003 RMK A01 T01460049  RH  052%=      5-min Rain = 0
KVP1 160409Z 27019KT 15/05 A3003 RMK A01 T01460049  RH  052%=      5-min Rain = 0
KVP1 160410Z 26017KT 15/05 A3003 RMK A01 T01460049  RH  052%=      5-min Rain = 0
KVP1 160411Z 26016KT 15/05 A3004 RMK A01 T01460049  RH  052%=      5-min Rain = 0
KVP1 160412Z 26018G23KT 15/05 A3004 RMK A01 T01460048  RH  052%=      5-min Rain = 0
KVP1 160413Z 27018KT 15/05 A3004 RMK A01 T01460048  RH  052%=      5-min Rain = 0
KVP1 160414Z 26017KT 15/05 A3004 RMK A01 T01460048  RH  052%=      5-min Rain = 0
KVP1 160415Z 26017KT 15/05 A3004 RMK A01 T01460048  RH  052%=      5-min Rain = 0
KVP1 160416Z 26017KT 15/05 A3004 RMK A01 T01460048  RH  052%=      5-min Rain = 0
KVP1 160417Z 26018KT 15/05 A3004 RMK A01 T01460048  RH  052%=      5-min Rain = 0
KVP1 160418Z 26017KT 15/05 A3004 RMK A01 T01460048  RH  052%=      5-min Rain = 0
KVP1 160419Z 26019KT 15/05 A3004 RMK A01 T01460048  RH  052%=      5-min Rain = 0
KVP1 160420Z 26018KT 15/05 A3004 RMK A01 T01460047  RH  052%=      5-min Rain = 0
KVP1 160421Z 27016KT 15/05 A3004 RMK A01 T01460047  RH  051%=      5-min Rain = 0
KVP1 160422Z 27016KT 15/05 A3004 RMK A01 T01450046  RH  051%=      5-min Rain = 0
KVP1 160423Z 26017KT 15/05 A3004 RMK A01 T01450046  RH  051%=      5-min Rain = 0
KVP1 160424Z 27016G21KT 15/05 A3004 RMK A01 T01450046  RH  051%=      5-min Rain = 0
KVP1 160425Z 27017KT 15/05 A3004 RMK A01 T01450046  RH  051%=      5-min Rain = 0
KVP1 160426Z 27015KT 15/05 A3004 RMK A01 T01450045  RH  051%=      5-min Rain = 0
KVP1 160427Z 27016KT 15/05 A3004 RMK A01 T01450045  RH  051%=      5-min Rain = 0
KVP1 160428Z 27016KT 15/04 A3004 RMK A01 T01450044  RH  051%=      5-min Rain = 0
KVP1 160429Z 27017KT 15/04 A3004 RMK A01 T01450044  RH  051%=      5-min Rain = 0
KVP1 160430Z 27017KT 15/04 A3004 RMK A01 T01450043  RH  050%=      5-min Rain = 0
KVP1 160431Z 27017G22KT 15/04 A3004 RMK A01 T01460043  RH  050%=      5-min Rain = 0
KVP1 160432Z 27016KT 15/04 A3004 RMK A01 T01460043  RH  050%=      5-min Rain = 0
KVP1 160433Z 27016KT 15/04 A3004 RMK A01 T01460043  RH  050%=      5-min Rain = 0
KVP1 160434Z 27015KT 15/04 A3004 RMK A01 T01460043  RH  050%=      5-min Rain = 0
KVP1 160435Z 27018KT 15/04 A3004 RMK A01 T01460043  RH  050%=      5-min Rain = 0
KVP1 160436Z 28017KT 15/04 A3004 RMK A01 T01470043  RH  050%=      5-min Rain = 0
KVP1 160437Z 28016KT 15/04 A3004 RMK A01 T01470043  RH  050%=      5-min Rain = 0
KVP1 160438Z 28015KT 15/04 A3004 RMK A01 T01460043  RH  050%=      5-min Rain = 0
KVP1 160439Z 28015KT 15/04 A3005 RMK A01 T01460043  RH  050%=      5-min Rain = 0
KVP1 160440Z 28015KT 15/04 A3005 RMK A01 T01450043  RH  050%=      5-min Rain = 0
KVP1 160441Z 28016G21KT 15/04 A3005 RMK A01 T01450043  RH  050%=      5-min Rain = 0
KVP1 160442Z 28016KT 15/04 A3005 RMK A01 T01450043  RH  050%=      5-min Rain = 0
KVP1 160443Z 28016KT 15/04 A3005 RMK A01 T01450043  RH  050%=      5-min Rain = 0
KVP1 160444Z 28015KT 15/04 A3005 RMK A01 T01450043  RH  050%=      5-min Rain = 0
KVP1 160445Z 28014KT 14/04 A3005 RMK A01 T01440043  RH  050%=      5-min Rain = 0
KVP1 160446Z 28016KT 14/04 A3005 RMK A01 T01440042  RH  051%=      5-min Rain = 0
KVP1 160447Z 27016KT 14/04 A3005 RMK A01 T01440043  RH  051%=      5-min Rain = 0
KVP1 160448Z 28016KT 14/04 A3005 RMK A01 T01440042  RH  050%=      5-min Rain = 0
KVP1 160449Z 28014KT 14/04 A3005 RMK A01 T01440042  RH  050%=      5-min Rain = 0
KVP1 160450Z 27015KT 14/04 A3005 RMK A01 T01440042  RH  050%=      5-min Rain = 0
KVP1 160451Z 27016KT 14/04 A3005 RMK A01 T01440042  RH  050%=      5-min Rain = 0
KVP1 160452Z 27016KT 14/04 A3005 RMK A01 T01440042  RH  050%=      5-min Rain = 0
KVP1 160453Z 27018KT 14/04 A3005 RMK A01 T01440042  RH  050%=      5-min Rain = 0
KVP1 160454Z 27017KT 14/04 A3005 RMK A01 T01440042  RH  050%=      5-min Rain = 0
KVP1 160455Z 27017KT 15/04 A3005 RMK A01 T01450042  RH  050%=      5-min Rain = 0
KVP1 160456Z 27017KT 15/04 A3005 RMK A01 T01450041  RH  050%=      5-min Rain = 0
KVP1 160457Z 27017G22KT 15/04 A3005 RMK A01 T01450041  RH  050%=      5-min Rain = 0
KVP1 160458Z 27016KT 15/04 A3005 RMK A01 T01450041  RH  050%=      5-min Rain = 0
KVP1 160459Z 27017KT 15/04 A3005 RMK A01 T01450041  RH  050%=      5-min Rain = 0
KVP1 160500Z 27016G21KT 15/04 A3005 RMK A01 T01450041  RH  050%=      5-min Rain = 0
KVP1 160501Z 27017KT 15/04 A3005 RMK A01 T01450041  RH  049%=      5-min Rain = 0
KVP1 160502Z 28018KT 15/04 A3005 RMK A01 T01460041  RH  049%=      5-min Rain = 0
KVP1 160503Z 27016KT 15/04 A3005 RMK A01 T01460040  RH  049%=      5-min Rain = 0
KVP1 160504Z 27016KT 15/04 A3005 RMK A01 T01460040  RH  049%=      5-min Rain = 0
KVP1 160505Z 27017KT 15/04 A3005 RMK A01 T01460041  RH  049%=      5-min Rain = 0
KVP1 160506Z 28016KT 15/04 A3006 RMK A01 T01460041  RH  049%=      5-min Rain = 0
KVP1 160507Z 28016KT 15/04 A3006 RMK A01 T01460040  RH  049%=      5-min Rain = 0
KVP1 160508Z 28013KT 15/04 A3006 RMK A01 T01460040  RH  049%=      5-min Rain = 0
KVP1 160509Z 28014KT 15/04 A3006 RMK A01 T01450040  RH  049%=      5-min Rain = 0
KVP1 160510Z 28016KT 15/04 A3006 RMK A01 T01450040  RH  049%=      5-min Rain = 0
KVP1 160511Z 28015KT 15/04 A3006 RMK A01 T01450040  RH  049%=      5-min Rain = 0
KVP1 160512Z 29016KT 14/04 A3006 RMK A01 T01440039  RH  049%=      5-min Rain = 0
KVP1 160513Z 29015KT 14/04 A3006 RMK A01 T01440039  RH  049%=      5-min Rain = 0
KVP1 160514Z 29015KT 14/04 A3006 RMK A01 T01440039  RH  049%=      5-min Rain = 0
KVP1 160515Z 29015KT 14/04 A3006 RMK A01 T01440039  RH  049%=      5-min Rain = 0
KVP1 160516Z 28017KT 14/04 A3006 RMK A01 T01440039  RH  049%=      5-min Rain = 0
KVP1 160517Z 29018KT 14/04 A3006 RMK A01 T01440038  RH  049%=      5-min Rain = 0
KVP1 160518Z 29017G22KT 15/04 A3006 RMK A01 T01450037  RH  048%=      5-min Rain = 0
KVP1 160519Z 29015KT 15/04 A3006 RMK A01 T01460037  RH  048%=      5-min Rain = 0
KVP1 160520Z 29015KT 15/04 A3007 RMK A01 T01460036  RH  048%=      5-min Rain = 0
KVP1 160521Z 29017KT 15/04 A3007 RMK A01 T01460036  RH  048%=      5-min Rain = 0
KVP1 160522Z 29018KT 15/04 A3007 RMK A01 T01460036  RH  047%=      5-min Rain = 0
KVP1 160523Z 29018KT 15/04 A3007 RMK A01 T01470035  RH  047%=      5-min Rain = 0
KVP1 160524Z 29017KT 15/04 A3007 RMK A01 T01480035  RH  047%=      5-min Rain = 0
KVP1 160525Z 29019KT 15/04 A3007 RMK A01 T01480035  RH  047%=      5-min Rain = 0
KVP1 160526Z 29017KT 15/03 A3007 RMK A01 T01480034  RH  046%=      5-min Rain = 0
KVP1 160527Z 29016KT 15/03 A3007 RMK A01 T01480034  RH  046%=      5-min Rain = 0
KVP1 160528Z 28015KT 15/03 A3007 RMK A01 T01480034  RH  046%=      5-min Rain = 0
KVP1 160529Z 28016KT 15/03 A3007 RMK A01 T01480034  RH  046%=      5-min Rain = 0
KVP1 160530Z 29015KT 15/03 A3007 RMK A01 T01470034  RH  046%=      5-min Rain = 0
KVP1 160531Z 29019KT 15/03 A3007 RMK A01 T01470033  RH  046%=      5-min Rain = 0
KVP1 160532Z 28017KT 15/03 A3007 RMK A01 T01470033  RH  046%=      5-min Rain = 0
KVP1 160533Z 29018KT 15/03 A3007 RMK A01 T01480033  RH  046%=      5-min Rain = 0
KVP1 160534Z 29017KT 15/03 A3007 RMK A01 T01470032  RH  046%=      5-min Rain = 0
KVP1 160535Z 29016KT 15/03 A3007 RMK A01 T01470032  RH  046%=      5-min Rain = 0
KVP1 160536Z 29018KT 15/03 A3007 RMK A01 T01460032  RH  046%=      5-min Rain = 0
KVP1 160537Z 29016KT 15/03 A3007 RMK A01 T01450032  RH  046%=      5-min Rain = 0
KVP1 160538Z 29016KT 15/03 A3007 RMK A01 T01460031  RH  046%=      5-min Rain = 0
KVP1 160539Z 29017G22KT 15/03 A3007 RMK A01 T01450031  RH  046%=      5-min Rain = 0
KVP1 160540Z 29016KT 15/03 A3007 RMK A01 T01450030  RH  046%=      5-min Rain = 0
KVP1 160541Z 29017KT 15/03 A3007 RMK A01 T01460031  RH  046%=      5-min Rain = 0
KVP1 160542Z 29018KT 15/03 A3007 RMK A01 T01450030  RH  046%=      5-min Rain = 0
KVP1 160543Z 29017KT 15/03 A3007 RMK A01 T01450030  RH  046%=      5-min Rain = 0
KVP1 160544Z 29017KT 14/03 A3008 RMK A01 T01440029  RH  046%=      5-min Rain = 0
KVP1 160545Z 29017G23KT 14/03 A3008 RMK A01 T01440029  RH  046%=      5-min Rain = 0
KVP1 160546Z 30017G22KT 14/03 A3008 RMK A01 T01440028  RH  046%=      5-min Rain = 0
KVP1 160547Z 30017KT 14/03 A3008 RMK A01 T01440027  RH  045%=      5-min Rain = 0
KVP1 160548Z 30018KT 15/03 A3008 RMK A01 T01450027  RH  045%=      5-min Rain = 0
KVP1 160549Z 30017KT 15/03 A3008 RMK A01 T01450027  RH  045%=      5-min Rain = 0
KVP1 160550Z 30017KT 14/03 A3008 RMK A01 T01440026  RH  045%=      5-min Rain = 0
KVP1 160551Z 30015KT 14/03 A3008 RMK A01 T01440025  RH  045%=      5-min Rain = 0
KVP1 160552Z 30016KT 14/03 A3008 RMK A01 T01440025  RH  045%=      5-min Rain = 0
KVP1 160553Z 30016KT 14/03 A3008 RMK A01 T01430025  RH  045%=      5-min Rain = 0
KVP1 160554Z 29016KT 14/02 A3008 RMK A01 T01430024  RH  044%=      5-min Rain = 0
KVP1 160555Z 29016KT 14/02 A3008 RMK A01 T01430023  RH  044%=      5-min Rain = 0
KVP1 160556Z 29017KT 14/02 A3008 RMK A01 T01440023  RH  044%=      5-min Rain = 0
KVP1 160557Z 29017KT 14/02 A3008 RMK A01 T01440023  RH  044%=      5-min Rain = 0
KVP1 160558Z 30018KT 14/02 A3008 RMK A01 T01430022  RH  044%=      5-min Rain = 0
KVP1 160559Z 29017KT 14/02 A3008 RMK A01 T01440021  RH  044%=      5-min Rain = 0

Page generated in 0.1252 seconds.